Time,TemperatureF,DewpointF,PressureIn,WindDirection,WindDirectionDegrees,WindSpeedMPH,WindSpeedGustMPH,Humidity,HourlyPrecipIn,Conditions,Clouds,dailyrainin,SoftwareType,DateUTC
2013-08-03 00:02:00,65.1,54.7,25.31,SE,131,5.4,7.6,69,0.00,,---,0.00,VWS V14.01,2013-08-03 06:02:00,
2013-08-03 00:04:00,65.3,54.5,25.31,ESE,123,8.3,15.9,68,0.00,,---,0.00,VWS V14.01,2013-08-03 06:04:00,
2013-08-03 00:07:00,65.5,54.2,25.31,NE,46,5.4,7.6,67,0.00,,---,0.00,VWS V14.01,2013-08-03 06:07:00,
2013-08-03 00:08:00,65.5,54.2,25.31,ESE,120,3.6,7.6,67,0.00,,---,0.00,VWS V14.01,2013-08-03 06:08:00,
2013-08-03 00:11:00,65.5,54.2,25.31,ESE,120,6.3,6.7,67,0.00,,---,0.00,VWS V14.01,2013-08-03 06:11:00,
2013-08-03 00:13:00,65.5,54.2,25.31,East,90,8.1,8.1,67,0.00,,---,0.00,VWS V14.01,2013-08-03 06:13:00,
2013-08-03 00:14:00,65.5,54.2,25.31,East,90,8.1,8.1,67,0.00,,---,0.00,VWS V14.01,2013-08-03 06:14:00,
2013-08-03 00:19:00,65.7,54.4,25.31,ENE,73,4.0,7.6,67,0.00,,---,0.00,VWS V14.01,2013-08-03 06:19:00,
2013-08-03 00:20:00,65.7,54.4,25.31,SE,144,4.0,8.3,67,0.00,,---,0.00,VWS V14.01,2013-08-03 06:20:00,
2013-08-03 00:21:00,65.7,54.4,25.31,South,176,2.7,4.0,67,0.00,,---,0.00,VWS V14.01,2013-08-03 06:21:00,
2013-08-03 00:23:00,65.5,54.2,25.31,SSE,159,0.0,4.9,67,0.00,,---,0.00,VWS V14.01,2013-08-03 06:23:00,
2013-08-03 00:26:00,65.5,54.7,25.31,ENE,76,3.6,3.6,68,0.00,,---,0.00,VWS V14.01,2013-08-03 06:26:00,
2013-08-03 00:29:00,65.3,54.1,25.31,ESE,105,8.1,8.1,67,0.00,,---,0.00,VWS V14.01,2013-08-03 06:29:00,
2013-08-03 00:30:00,65.3,54.1,25.31,ESE,102,3.1,8.1,67,0.00,,---,0.00,VWS V14.01,2013-08-03 06:30:00,
2013-08-03 00:31:00,65.3,54.1,25.31,SW,224,3.1,3.6,67,0.00,,---,0.00,VWS V14.01,2013-08-03 06:31:00,
2013-08-03 00:32:00,65.3,54.1,25.31,SW,225,0.0,3.1,67,0.00,,---,0.00,VWS V14.01,2013-08-03 06:32:00,
2013-08-03 00:34:00,65.3,54.1,25.28,SE,137,4.9,4.9,67,0.00,,---,0.00,VWS V14.01,2013-08-03 06:34:00,
2013-08-03 00:35:00,65.3,54.1,25.28,SE,137,4.9,4.9,67,0.00,,---,0.00,VWS V14.01,2013-08-03 06:35:00,
2013-08-03 00:36:00,65.3,54.1,25.28,NE,37,2.7,4.9,67,0.00,,---,0.00,VWS V14.01,2013-08-03 06:36:00,
2013-08-03 00:37:00,65.3,54.1,25.28,SW,233,2.2,2.7,67,0.00,,---,0.00,VWS V14.01,2013-08-03 06:37:00,
2013-08-03 00:40:00,65.1,53.9,25.28,SSE,152,4.9,4.9,67,0.00,,---,0.00,VWS V14.01,2013-08-03 06:40:00,
2013-08-03 00:42:00,65.1,53.9,25.28,SE,141,5.4,5.8,67,0.00,,---,0.00,VWS V14.01,2013-08-03 06:42:00,
2013-08-03 00:43:00,65.3,54.1,25.28,SE,145,3.6,5.4,67,0.00,,---,0.00,VWS V14.01,2013-08-03 06:43:00,
2013-08-03 00:45:00,65.3,53.7,25.28,ESE,103,2.7,5.4,66,0.00,,---,0.00,VWS V14.01,2013-08-03 06:45:00,
2013-08-03 00:47:00,65.5,53.8,25.28,WSW,254,7.6,7.6,66,0.00,,---,0.00,VWS V14.01,2013-08-03 06:47:00,
2013-08-03 00:49:00,65.5,53.4,25.28,WSW,246,10.5,10.5,65,0.00,,---,0.00,VWS V14.01,2013-08-03 06:49:00,
2013-08-03 00:52:00,65.5,53.4,25.28,SSE,157,6.7,6.7,65,0.00,,---,0.00,VWS V14.01,2013-08-03 06:52:00,
2013-08-03 00:54:00,65.7,53.6,25.28,SW,226,2.7,6.7,65,0.00,,---,0.00,VWS V14.01,2013-08-03 06:54:00,
2013-08-03 00:58:00,65.7,53.2,25.28,SW,214,3.1,3.1,64,0.00,,---,0.00,VWS V14.01,2013-08-03 06:58:00,
2013-08-03 00:59:00,65.7,53.2,25.28,SE,130,2.7,3.1,64,0.00,,---,0.00,VWS V14.01,2013-08-03 06:59:00,
2013-08-03 01:00:00,65.5,53.4,25.28,SE,130,2.7,2.7,65,0.00,,---,0.00,VWS V14.01,2013-08-03 07:00:00,
2013-08-03 01:03:00,65.5,53.0,25.28,SSE,160,6.3,7.6,64,0.00,,---,0.00,VWS V14.01,2013-08-03 07:03:00,
2013-08-03 01:04:00,65.5,53.0,25.28,SSE,150,3.6,6.3,64,0.00,,---,0.00,VWS V14.01,2013-08-03 07:04:00,
2013-08-03 01:06:00,65.7,52.7,25.28,SW,218,15.0,15.0,63,0.00,,---,0.00,VWS V14.01,2013-08-03 07:06:00,
2013-08-03 01:07:00,65.7,52.7,25.28,SE,131,8.7,15.0,63,0.00,,---,0.00,VWS V14.01,2013-08-03 07:07:00,
2013-08-03 01:08:00,65.7,52.7,25.28,SSW,206,4.0,8.7,63,0.00,,---,0.00,VWS V14.01,2013-08-03 07:08:00,
2013-08-03 01:10:00,65.7,52.3,25.28,SW,220,6.3,6.3,62,0.00,,---,0.00,VWS V14.01,2013-08-03 07:10:00,
2013-08-03 01:11:00,65.8,52.5,25.28,SSE,158,2.7,6.3,62,0.00,,---,0.00,VWS V14.01,2013-08-03 07:11:00,
2013-08-03 01:14:00,65.8,52.0,25.28,East,80,5.8,5.8,61,0.00,,---,0.00,VWS V14.01,2013-08-03 07:14:00,
2013-08-03 01:16:00,65.8,52.0,25.28,South,191,4.0,4.0,61,0.00,,---,0.00,VWS V14.01,2013-08-03 07:16:00,
2013-08-03 01:17:00,65.8,52.0,25.28,SE,145,3.6,4.0,61,0.00,,---,0.00,VWS V14.01,2013-08-03 07:17:00,
2013-08-03 01:21:00,65.8,52.0,25.25,WNW,284,5.8,5.8,61,0.00,,---,0.00,VWS V14.01,2013-08-03 07:21:00,
2013-08-03 01:23:00,66.0,51.3,25.25,West,267,6.3,6.3,59,0.00,,---,0.00,VWS V14.01,2013-08-03 07:23:00,
2013-08-03 01:24:00,66.0,51.3,25.25,SE,138,3.6,8.1,59,0.00,,---,0.00,VWS V14.01,2013-08-03 07:24:00,
2013-08-03 01:26:00,66.0,50.8,25.25,East,88,5.4,5.4,58,0.00,,---,0.00,VWS V14.01,2013-08-03 07:26:00,
2013-08-03 01:29:00,66.2,51.0,25.25,SSE,162,5.8,5.8,58,0.00,,---,0.00,VWS V14.01,2013-08-03 07:29:00,
2013-08-03 01:30:00,66.2,51.0,25.25,SSE,168,8.7,8.7,58,0.00,,---,0.00,VWS V14.01,2013-08-03 07:30:00,
2013-08-03 01:31:00,66.2,50.5,25.25,East,98,5.8,8.7,57,0.00,,---,0.00,VWS V14.01,2013-08-03 07:31:00,
2013-08-03 01:33:00,66.2,50.5,25.25,East,98,7.6,8.3,57,0.00,,---,0.00,VWS V14.01,2013-08-03 07:33:00,
2013-08-03 01:35:00,66.4,50.7,25.25,SW,217,3.1,3.6,57,0.00,,---,0.00,VWS V14.01,2013-08-03 07:35:00,
2013-08-03 01:36:00,66.4,50.7,25.25,South,185,4.9,4.9,57,0.00,,---,0.00,VWS V14.01,2013-08-03 07:36:00,
2013-08-03 01:39:00,66.4,50.2,25.25,SE,133,4.9,4.9,56,0.00,,---,0.00,VWS V14.01,2013-08-03 07:39:00,
2013-08-03 01:41:00,66.4,50.2,25.25,SE,142,2.7,4.9,56,0.00,,---,0.00,VWS V14.01,2013-08-03 07:41:00,
2013-08-03 01:42:00,66.4,50.2,25.25,South,175,6.3,8.3,56,0.00,,---,0.00,VWS V14.01,2013-08-03 07:42:00,
2013-08-03 01:44:00,66.4,49.7,25.25,SSE,149,7.6,7.6,55,0.00,,---,0.00,VWS V14.01,2013-08-03 07:44:00,
2013-08-03 01:45:00,66.4,49.2,25.25,SSE,164,0.0,7.6,54,0.00,,---,0.00,VWS V14.01,2013-08-03 07:45:00,
2013-08-03 01:49:00,66.7,49.6,25.25,East,87,4.0,8.3,54,0.00,,---,0.00,VWS V14.01,2013-08-03 07:49:00,
2013-08-03 01:51:00,66.7,49.6,25.25,SSW,193,2.7,5.4,54,0.00,,---,0.00,VWS V14.01,2013-08-03 07:51:00,
2013-08-03 01:52:00,66.7,49.6,25.25,ENE,67,3.1,3.1,54,0.00,,---,0.00,VWS V14.01,2013-08-03 07:52:00,
2013-08-03 01:54:00,66.7,49.6,25.25,East,99,6.3,7.2,54,0.00,,---,0.00,VWS V14.01,2013-08-03 07:54:00,
2013-08-03 01:56:00,66.7,49.6,25.25,SSW,194,4.9,4.9,54,0.00,,---,0.00,VWS V14.01,2013-08-03 07:56:00,
2013-08-03 01:58:00,66.6,49.4,25.25,SSE,149,7.6,7.6,54,0.00,,---,0.00,VWS V14.01,2013-08-03 07:58:00,
2013-08-03 01:59:00,66.6,49.4,25.25,SSW,210,2.2,7.6,54,0.00,,---,0.00,VWS V14.01,2013-08-03 07:59:00,
2013-08-03 02:02:00,66.7,49.1,25.25,SSW,210,2.2,2.2,53,0.00,,---,0.00,VWS V14.01,2013-08-03 08:02:00,
2013-08-03 02:03:00,66.7,49.6,25.25,SSE,153,2.7,4.9,54,0.00,,---,0.00,VWS V14.01,2013-08-03 08:03:00,
2013-08-03 02:08:00,66.6,51.8,25.25,East,82,3.6,4.9,59,0.00,,---,0.00,VWS V14.01,2013-08-03 08:08:00,
2013-08-03 02:09:00,66.4,53.0,25.25,North,1,4.9,5.4,62,0.00,,---,0.00,VWS V14.01,2013-08-03 08:09:00,
2013-08-03 02:11:00,66.0,53.1,25.25,ESE,104,4.9,4.9,63,0.00,,---,0.00,VWS V14.01,2013-08-03 08:11:00,
2013-08-03 02:15:00,65.3,54.1,25.25,East,85,5.8,5.8,67,0.00,,---,0.00,VWS V14.01,2013-08-03 08:15:00,
2013-08-03 02:16:00,64.9,54.5,25.25,SSE,151,5.8,5.8,69,0.00,,---,0.00,VWS V14.01,2013-08-03 08:16:00,
2013-08-03 02:21:00,64.0,54.8,25.25,SE,144,5.8,5.8,72,0.00,,---,0.00,VWS V14.01,2013-08-03 08:21:00,
2013-08-03 02:22:00,64.0,55.2,25.25,East,99,8.3,8.3,73,0.00,,---,0.00,VWS V14.01,2013-08-03 08:22:00,
2013-08-03 02:23:00,63.9,55.4,25.25,SE,130,8.3,8.3,74,0.00,,---,0.00,VWS V14.01,2013-08-03 08:23:00,
2013-08-03 02:24:00,63.9,55.8,25.25,ENE,71,2.7,8.3,75,0.00,,---,0.00,VWS V14.01,2013-08-03 08:24:00,
2013-08-03 02:26:00,63.7,55.6,25.25,SE,130,3.6,3.6,75,0.00,,---,0.00,VWS V14.01,2013-08-03 08:26:00,
2013-08-03 02:29:00,63.5,56.2,25.25,East,87,4.0,5.4,77,0.00,,---,0.00,VWS V14.01,2013-08-03 08:29:00,
2013-08-03 02:30:00,63.5,56.5,25.25,East,87,4.0,4.0,78,0.00,,---,0.00,VWS V14.01,2013-08-03 08:30:00,
2013-08-03 02:33:00,63.5,56.9,25.25,South,171,5.8,5.8,79,0.00,,---,0.00,VWS V14.01,2013-08-03 08:33:00,
2013-08-03 02:35:00,63.5,57.2,25.25,ESE,114,5.8,5.8,80,0.00,,---,0.00,VWS V14.01,2013-08-03 08:35:00,
2013-08-03 02:36:00,63.3,57.0,25.25,ESE,114,5.8,5.8,80,0.00,,---,0.00,VWS V14.01,2013-08-03 08:36:00,
2013-08-03 02:38:00,63.3,57.0,25.25,East,89,3.6,4.9,80,0.00,,---,0.00,VWS V14.01,2013-08-03 08:38:00,
2013-08-03 02:41:00,63.3,57.4,25.25,NE,44,4.0,5.4,81,0.00,,---,0.00,VWS V14.01,2013-08-03 08:41:00,
2013-08-03 02:43:00,63.3,57.4,25.25,NE,38,4.0,6.3,81,0.00,,---,0.00,VWS V14.01,2013-08-03 08:43:00,
2013-08-03 02:44:00,63.3,57.4,25.25,East,85,4.0,5.8,81,0.00,,---,0.00,VWS V14.01,2013-08-03 08:44:00,
2013-08-03 02:47:00,63.3,57.4,25.25,SE,128,3.6,8.7,81,0.00,,---,0.00,VWS V14.01,2013-08-03 08:47:00,
2013-08-03 02:49:00,63.3,57.7,25.25,ENE,65,5.4,10.1,82,0.00,,---,0.00,VWS V14.01,2013-08-03 08:49:00,
2013-08-03 02:50:00,63.3,57.7,25.25,ESE,123,8.7,8.7,82,0.00,,---,0.00,VWS V14.01,2013-08-03 08:50:00,
2013-08-03 02:53:00,63.3,57.4,25.25,ENE,59,5.8,5.8,81,0.00,,---,0.00,VWS V14.01,2013-08-03 08:53:00,
2013-08-03 02:54:00,63.3,57.4,25.25,East,86,5.8,5.8,81,0.00,,---,0.00,VWS V14.01,2013-08-03 08:54:00,
2013-08-03 02:55:00,63.3,57.4,25.25,East,98,7.6,7.6,81,0.00,,---,0.00,VWS V14.01,2013-08-03 08:55:00,
2013-08-03 02:57:00,63.3,57.4,25.28,East,95,3.6,3.6,81,0.00,,---,0.00,VWS V14.01,2013-08-03 08:57:00,
2013-08-03 02:59:00,63.3,57.0,25.28,SE,131,4.5,5.4,80,0.00,,---,0.00,VWS V14.01,2013-08-03 08:59:00,
2013-08-03 03:00:00,63.5,57.2,25.28,North,353,4.9,4.9,80,0.00,,---,0.00,VWS V14.01,2013-08-03 09:00:00,
2013-08-03 03:03:00,63.5,56.9,25.25,East,89,4.0,4.9,79,0.00,,---,0.00,VWS V14.01,2013-08-03 09:03:00,
2013-08-03 03:05:00,63.5,56.5,25.25,ESE,103,3.6,5.8,78,0.00,,---,0.00,VWS V14.01,2013-08-03 09:05:00,
2013-08-03 03:06:00,63.7,56.7,25.25,NE,51,3.1,3.6,78,0.00,,---,0.00,VWS V14.01,2013-08-03 09:06:00,
2013-08-03 03:07:00,63.7,56.7,25.25,East,86,2.7,4.0,78,0.00,,---,0.00,VWS V14.01,2013-08-03 09:07:00,
2013-08-03 03:10:00,63.7,56.3,25.25,NE,55,5.4,5.4,77,0.00,,---,0.00,VWS V14.01,2013-08-03 09:10:00,
2013-08-03 03:13:00,63.7,56.3,25.25,South,186,0.0,2.7,77,0.00,,---,0.00,VWS V14.01,2013-08-03 09:13:00,
2013-08-03 03:15:00,63.9,56.2,25.25,South,186,0.0,0.0,76,0.00,,---,0.00,VWS V14.01,2013-08-03 09:15:00,
2013-08-03 03:16:00,63.9,56.2,25.25,South,186,2.7,2.7,76,0.00,,---,0.00,VWS V14.01,2013-08-03 09:16:00,
2013-08-03 03:18:00,63.9,56.2,25.25,ESE,110,0.0,3.1,76,0.00,,---,0.00,VWS V14.01,2013-08-03 09:18:00,
2013-08-03 03:21:00,63.7,55.6,25.25,ESE,103,2.7,2.7,75,0.00,,---,0.00,VWS V14.01,2013-08-03 09:21:00,
2013-08-03 03:24:00,63.7,54.9,25.25,ENE,72,2.7,2.7,73,0.00,,---,0.00,VWS V14.01,2013-08-03 09:24:00,
2013-08-03 03:25:00,63.9,55.0,25.25,ENE,76,2.7,2.7,73,0.00,,---,0.00,VWS V14.01,2013-08-03 09:25:00,
2013-08-03 03:27:00,63.9,54.7,25.25,NE,46,0.0,3.1,72,0.00,,---,0.00,VWS V14.01,2013-08-03 09:27:00,
2013-08-03 03:30:00,64.2,54.6,25.25,East,94,2.7,3.1,71,0.00,,---,0.00,VWS V14.01,2013-08-03 09:30:00,
2013-08-03 03:33:00,64.4,54.4,25.25,ENE,59,3.1,3.1,70,0.00,,---,0.00,VWS V14.01,2013-08-03 09:33:00,
2013-08-03 03:34:00,64.4,54.4,25.25,NE,49,2.2,3.6,70,0.00,,---,0.00,VWS V14.01,2013-08-03 09:34:00,
2013-08-03 03:35:00,64.4,54.4,25.25,NE,49,0.0,2.2,70,0.00,,---,0.00,VWS V14.01,2013-08-03 09:35:00,
2013-08-03 03:38:00,64.4,54.4,25.25,ESE,102,4.0,5.4,70,0.00,,---,0.00,VWS V14.01,2013-08-03 09:38:00,
2013-08-03 03:39:00,64.4,54.0,25.25,East,95,0.0,4.0,69,0.00,,---,0.00,VWS V14.01,2013-08-03 09:39:00,
2013-08-03 03:40:00,64.4,54.0,25.25,SE,135,0.0,0.0,69,0.00,,---,0.00,VWS V14.01,2013-08-03 09:40:00,
2013-08-03 03:42:00,64.4,54.0,25.25,ESE,114,0.0,2.7,69,0.00,,---,0.00,VWS V14.01,2013-08-03 09:42:00,
2013-08-03 03:44:00,64.4,54.0,25.25,SE,139,5.8,5.8,69,0.00,,---,0.00,VWS V14.01,2013-08-03 09:44:00,
2013-08-03 03:45:00,64.4,53.6,25.25,SE,139,5.8,5.8,68,0.00,,---,0.00,VWS V14.01,2013-08-03 09:45:00,
2013-08-03 03:49:00,64.6,53.8,25.25,ESE,119,3.1,3.1,68,0.00,,---,0.00,VWS V14.01,2013-08-03 09:49:00,
2013-08-03 03:50:00,64.6,53.8,25.25,East,101,5.4,5.4,68,0.00,,---,0.00,VWS V14.01,2013-08-03 09:50:00,
2013-08-03 03:53:00,64.8,54.0,25.25,ENE,58,3.6,3.6,68,0.00,,---,0.00,VWS V14.01,2013-08-03 09:53:00,
2013-08-03 03:54:00,64.8,54.0,25.25,ENE,58,3.6,3.6,68,0.00,,---,0.00,VWS V14.01,2013-08-03 09:54:00,
2013-08-03 03:56:00,64.8,54.0,25.25,NE,38,3.6,4.9,68,0.00,,---,0.00,VWS V14.01,2013-08-03 09:56:00,
2013-08-03 03:57:00,64.8,54.0,25.25,ESE,114,3.1,3.6,68,0.00,,---,0.00,VWS V14.01,2013-08-03 09:57:00,
2013-08-03 03:59:00,64.8,54.8,25.25,ESE,120,2.7,6.3,70,0.00,,---,0.00,VWS V14.01,2013-08-03 09:59:00,
2013-08-03 04:00:00,64.8,54.8,25.25,ENE,77,3.6,3.6,70,0.00,,---,0.00,VWS V14.01,2013-08-03 10:00:00,
2013-08-03 04:01:00,64.6,55.0,25.25,SW,214,5.8,5.8,71,0.00,,---,0.00,VWS V14.01,2013-08-03 10:01:00,
2013-08-03 04:02:00,64.4,54.8,25.25,ENE,78,4.9,5.8,71,0.00,,---,0.00,VWS V14.01,2013-08-03 10:02:00,
2013-08-03 04:04:00,64.2,55.4,25.25,ENE,66,3.6,4.0,73,0.00,,---,0.00,VWS V14.01,2013-08-03 10:04:00,
2013-08-03 04:05:00,64.0,55.2,25.25,ENE,69,6.3,6.3,73,0.00,,---,0.00,VWS V14.01,2013-08-03 10:05:00,
2013-08-03 04:06:00,63.9,55.4,25.25,NE,56,5.4,7.6,74,0.00,,---,0.00,VWS V14.01,2013-08-03 10:06:00,
2013-08-03 04:08:00,63.7,56.0,25.25,NNE,25,4.9,5.8,76,0.00,,---,0.00,VWS V14.01,2013-08-03 10:08:00,
2013-08-03 04:11:00,63.5,56.5,25.25,SE,132,5.8,5.8,78,0.00,,---,0.00,VWS V14.01,2013-08-03 10:11:00,
2013-08-03 04:12:00,63.5,56.9,25.25,East,83,7.6,7.6,79,0.00,,---,0.00,VWS V14.01,2013-08-03 10:12:00,
2013-08-03 04:14:00,63.3,56.7,25.25,ENE,73,3.6,6.3,79,0.00,,---,0.00,VWS V14.01,2013-08-03 10:14:00,
2013-08-03 04:17:00,63.1,56.9,25.25,NE,52,8.7,8.7,80,0.00,,---,0.00,VWS V14.01,2013-08-03 10:17:00,
2013-08-03 04:18:00,63.1,56.9,25.25,SE,139,5.4,8.7,80,0.00,,---,0.00,VWS V14.01,2013-08-03 10:18:00,
2013-08-03 04:23:00,63.1,57.6,25.28,East,100,4.0,4.0,82,0.00,,---,0.00,VWS V14.01,2013-08-03 10:23:00,
2013-08-03 04:24:00,63.1,57.6,25.28,East,96,3.1,4.0,82,0.00,,---,0.00,VWS V14.01,2013-08-03 10:24:00,
2013-08-03 04:27:00,63.1,57.6,25.28,ESE,115,6.3,7.6,82,0.00,,---,0.00,VWS V14.01,2013-08-03 10:27:00,
2013-08-03 04:28:00,63.1,57.6,25.28,East,89,8.3,8.3,82,0.00,,---,0.00,VWS V14.01,2013-08-03 10:28:00,
2013-08-03 04:33:00,63.3,57.7,25.28,East,98,5.8,6.7,82,0.00,,---,0.00,VWS V14.01,2013-08-03 10:33:00,
2013-08-03 04:34:00,63.3,57.4,25.28,East,88,4.0,5.8,81,0.00,,---,0.00,VWS V14.01,2013-08-03 10:34:00,
2013-08-03 04:35:00,63.3,57.4,25.28,East,98,4.0,4.0,81,0.00,,---,0.00,VWS V14.01,2013-08-03 10:35:00,
2013-08-03 04:38:00,63.3,57.4,25.28,East,90,4.0,4.0,81,0.00,,---,0.00,VWS V14.01,2013-08-03 10:38:00,
2013-08-03 04:40:00,63.3,57.4,25.28,ENE,76,4.0,4.0,81,0.00,,---,0.00,VWS V14.01,2013-08-03 10:40:00,
2013-08-03 04:41:00,63.3,57.4,25.28,ESE,121,6.3,6.3,81,0.00,,---,0.00,VWS V14.01,2013-08-03 10:41:00,
2013-08-03 04:45:00,63.5,57.6,25.28,ENE,58,3.6,4.0,81,0.00,,---,0.00,VWS V14.01,2013-08-03 10:45:00,
2013-08-03 04:46:00,63.5,57.6,25.28,SE,136,4.0,4.0,81,0.00,,---,0.00,VWS V14.01,2013-08-03 10:46:00,
2013-08-03 04:47:00,63.5,57.6,25.28,SSE,154,8.3,9.6,81,0.00,,---,0.00,VWS V14.01,2013-08-03 10:47:00,
2013-08-03 04:49:00,63.5,57.2,25.28,SE,124,6.3,8.7,80,0.00,,---,0.00,VWS V14.01,2013-08-03 10:49:00,
2013-08-03 04:51:00,63.7,57.0,25.28,ESE,116,4.9,5.4,79,0.00,,---,0.00,VWS V14.01,2013-08-03 10:51:00,
2013-08-03 04:54:00,63.9,56.9,25.28,South,181,4.9,4.9,78,0.00,,---,0.00,VWS V14.01,2013-08-03 10:54:00,
2013-08-03 04:57:00,64.0,56.7,25.28,NE,49,3.1,3.1,77,0.00,,---,0.00,VWS V14.01,2013-08-03 10:57:00,
2013-08-03 04:59:00,64.0,56.7,25.28,ENE,68,4.9,5.8,77,0.00,,---,0.00,VWS V14.01,2013-08-03 10:59:00,
2013-08-03 05:00:00,64.0,56.7,25.28,East,79,4.0,4.9,77,0.00,,---,0.00,VWS V14.01,2013-08-03 11:00:00,
2013-08-03 05:02:00,64.0,56.3,25.28,East,96,5.4,8.1,76,0.00,,---,0.00,VWS V14.01,2013-08-03 11:02:00,
2013-08-03 05:05:00,64.0,56.0,25.28,ESE,104,3.1,3.1,75,0.00,,---,0.00,VWS V14.01,2013-08-03 11:05:00,
2013-08-03 05:06:00,64.2,56.1,25.28,South,191,2.7,5.4,75,0.00,,---,0.00,VWS V14.01,2013-08-03 11:06:00,
2013-08-03 05:10:00,64.2,55.4,25.28,East,81,8.3,8.3,73,0.00,,---,0.00,VWS V14.01,2013-08-03 11:10:00,
2013-08-03 05:11:00,64.2,55.4,25.25,East,92,3.6,8.3,73,0.00,,---,0.00,VWS V14.01,2013-08-03 11:11:00,
2013-08-03 05:12:00,64.2,55.4,25.25,SE,127,7.2,7.2,73,0.00,,---,0.00,VWS V14.01,2013-08-03 11:12:00,
2013-08-03 05:13:00,64.4,54.8,25.25,SSE,149,4.9,7.2,71,0.00,,---,0.00,VWS V14.01,2013-08-03 11:13:00,
2013-08-03 05:16:00,64.6,55.0,25.25,South,180,3.1,3.1,71,0.00,,---,0.00,VWS V14.01,2013-08-03 11:16:00,
2013-08-03 05:19:00,64.6,54.6,25.25,SE,131,2.7,8.1,70,0.00,,---,0.00,VWS V14.01,2013-08-03 11:19:00,
2013-08-03 05:20:00,64.6,54.6,25.25,East,81,3.1,3.1,70,0.00,,---,0.00,VWS V14.01,2013-08-03 11:20:00,
2013-08-03 05:21:00,64.6,54.6,25.25,East,81,3.1,3.1,70,0.00,,---,0.00,VWS V14.01,2013-08-03 11:21:00,
2013-08-03 05:23:00,64.6,54.6,25.25,SSE,156,4.0,4.9,70,0.00,,---,0.00,VWS V14.01,2013-08-03 11:23:00,
2013-08-03 05:24:00,64.6,54.2,25.25,East,95,8.3,8.3,69,0.00,,---,0.00,VWS V14.01,2013-08-03 11:24:00,
2013-08-03 05:28:00,64.8,54.0,25.25,ESE,106,0.0,0.0,68,0.00,,---,0.00,VWS V14.01,2013-08-03 11:28:00,
2013-08-03 05:30:00,64.9,54.1,25.25,SE,139,3.6,3.6,68,0.00,,---,0.00,VWS V14.01,2013-08-03 11:30:00,
2013-08-03 05:32:00,64.9,54.1,25.25,ESE,102,2.7,5.8,68,0.00,,---,0.00,VWS V14.01,2013-08-03 11:32:00,
2013-08-03 05:34:00,64.9,54.1,25.25,ENE,72,3.1,3.6,68,0.00,,---,0.00,VWS V14.01,2013-08-03 11:34:00,
2013-08-03 05:35:00,64.9,54.1,25.25,East,83,5.4,5.4,68,0.00,,---,0.00,VWS V14.01,2013-08-03 11:35:00,
2013-08-03 05:37:00,64.9,53.7,25.25,ESE,107,3.1,3.1,67,0.00,,---,0.00,VWS V14.01,2013-08-03 11:37:00,
2013-08-03 05:40:00,65.1,53.5,25.25,ESE,116,2.2,7.6,66,0.00,,---,0.00,VWS V14.01,2013-08-03 11:40:00,
2013-08-03 05:43:00,65.1,53.9,25.25,ENE,72,4.0,4.9,67,0.00,,---,0.00,VWS V14.01,2013-08-03 11:43:00,
2013-08-03 05:44:00,65.1,53.9,25.25,East,86,5.4,5.4,67,0.00,,---,0.00,VWS V14.01,2013-08-03 11:44:00,
2013-08-03 05:45:00,65.1,54.3,25.25,East,85,5.8,5.8,68,0.00,,---,0.00,VWS V14.01,2013-08-03 11:45:00,
2013-08-03 05:47:00,65.1,55.5,25.25,East,85,5.4,5.8,71,0.00,,---,0.00,VWS V14.01,2013-08-03 11:47:00,
2013-08-03 05:50:00,64.9,55.7,25.28,SE,126,8.1,8.1,72,0.00,,---,0.00,VWS V14.01,2013-08-03 11:50:00,
2013-08-03 05:51:00,64.6,56.1,25.28,East,92,3.6,8.1,74,0.00,,---,0.00,VWS V14.01,2013-08-03 11:51:00,
2013-08-03 05:52:00,64.4,56.3,25.28,East,89,5.8,5.8,75,0.00,,---,0.00,VWS V14.01,2013-08-03 11:52:00,
2013-08-03 05:54:00,64.2,56.9,25.28,East,100,8.7,8.7,77,0.00,,---,0.00,VWS V14.01,2013-08-03 11:54:00,
2013-08-03 05:56:00,64.0,57.0,25.28,ENE,70,3.1,8.7,78,0.00,,---,0.00,VWS V14.01,2013-08-03 11:56:00,
2013-08-03 05:57:00,64.0,57.0,25.28,ENE,65,2.7,3.1,78,0.00,,---,0.00,VWS V14.01,2013-08-03 11:57:00,
2013-08-03 06:02:00,63.9,57.6,25.28,SSE,147,6.3,6.3,80,0.00,,---,0.00,VWS V14.01,2013-08-03 12:02:00,
2013-08-03 06:03:00,63.9,57.6,25.28,SSE,147,6.3,6.3,80,0.00,,---,0.00,VWS V14.01,2013-08-03 12:03:00,
2013-08-03 06:04:00,63.9,57.6,25.28,East,98,5.8,8.1,80,0.00,,---,0.00,VWS V14.01,2013-08-03 12:04:00,
2013-08-03 06:06:00,63.7,57.8,25.28,ESE,115,7.6,10.5,81,0.00,,---,0.00,VWS V14.01,2013-08-03 12:06:00,
2013-08-03 06:08:00,63.7,57.8,25.28,ENE,70,3.6,5.4,81,0.00,,---,0.00,VWS V14.01,2013-08-03 12:08:00,
2013-08-03 06:10:00,63.7,57.8,25.28,ESE,103,3.6,4.9,81,0.00,,---,0.00,VWS V14.01,2013-08-03 12:10:00,
2013-08-03 06:11:00,63.7,57.8,25.28,East,82,3.6,3.6,81,0.00,,---,0.00,VWS V14.01,2013-08-03 12:11:00,
2013-08-03 06:12:00,63.7,57.8,25.28,East,82,3.6,3.6,81,0.00,,---,0.00,VWS V14.01,2013-08-03 12:12:00,
2013-08-03 06:14:00,63.7,57.8,25.28,ESE,117,0.0,2.7,81,0.00,,---,0.00,VWS V14.01,2013-08-03 12:14:00,
2013-08-03 06:15:00,63.7,57.8,25.28,ENE,61,3.1,3.1,81,0.00,,---,0.00,VWS V14.01,2013-08-03 12:15:00,
2013-08-03 06:17:00,63.7,58.1,25.28,East,92,3.6,5.4,82,0.00,,---,0.00,VWS V14.01,2013-08-03 12:17:00,
2013-08-03 06:21:00,63.5,58.2,25.31,SSE,159,5.4,5.4,83,0.00,,---,0.00,VWS V14.01,2013-08-03 12:21:00,
2013-08-03 06:22:00,63.5,58.2,25.31,East,89,5.4,5.4,83,0.00,,---,0.00,VWS V14.01,2013-08-03 12:22:00,
2013-08-03 06:23:00,63.5,58.2,25.31,ESE,106,3.6,5.4,83,0.00,,---,0.00,VWS V14.01,2013-08-03 12:23:00,
2013-08-03 06:24:00,63.5,58.6,25.31,East,91,5.4,5.4,84,0.00,,---,0.00,VWS V14.01,2013-08-03 12:24:00,
2013-08-03 06:28:00,63.3,59.1,25.31,East,95,3.1,8.3,86,0.00,,---,0.00,VWS V14.01,2013-08-03 12:28:00,
2013-08-03 06:32:00,63.5,59.2,25.31,East,90,4.9,6.3,86,0.00,,---,0.00,VWS V14.01,2013-08-03 12:32:00,
2013-08-03 06:33:00,63.5,59.2,25.31,East,83,3.1,6.7,86,0.00,,---,0.00,VWS V14.01,2013-08-03 12:33:00,
2013-08-03 06:39:00,63.7,59.1,25.31,ESE,109,5.4,6.3,85,0.00,,---,0.00,VWS V14.01,2013-08-03 12:39:00,
2013-08-03 06:42:00,63.9,58.9,25.31,ENE,70,3.1,7.6,84,0.00,,---,0.00,VWS V14.01,2013-08-03 12:42:00,
2013-08-03 06:43:00,63.9,58.9,25.31,ESE,104,3.6,3.6,84,0.00,,---,0.00,VWS V14.01,2013-08-03 12:43:00,
2013-08-03 06:45:00,64.0,58.8,25.31,ENE,57,7.2,7.2,83,0.00,,---,0.00,VWS V14.01,2013-08-03 12:45:00,
2013-08-03 06:46:00,64.0,58.8,25.31,ENE,57,7.2,7.2,83,0.00,,---,0.00,VWS V14.01,2013-08-03 12:46:00,
2013-08-03 06:47:00,64.0,58.8,25.31,ENE,66,3.6,7.2,83,0.00,,---,0.00,VWS V14.01,2013-08-03 12:47:00,
2013-08-03 06:50:00,64.4,58.5,25.31,SE,130,7.6,7.6,81,0.00,,---,0.00,VWS V14.01,2013-08-03 12:50:00,
2013-08-03 06:51:00,64.4,58.1,25.28,SE,130,7.6,7.6,80,0.00,,---,0.00,VWS V14.01,2013-08-03 12:51:00,
2013-08-03 06:53:00,64.6,57.9,25.28,ESE,115,3.1,5.8,79,0.00,,---,0.00,VWS V14.01,2013-08-03 12:53:00,
2013-08-03 06:56:00,64.9,58.3,25.28,East,92,2.7,4.0,79,0.00,,---,0.00,VWS V14.01,2013-08-03 12:56:00,
2013-08-03 06:58:00,64.9,57.9,25.28,East,89,5.4,5.4,78,0.00,,---,0.00,VWS V14.01,2013-08-03 12:58:00,
2013-08-03 06:59:00,65.3,57.5,25.28,SE,126,3.1,6.3,76,0.00,,---,0.00,VWS V14.01,2013-08-03 12:59:00,
2013-08-03 07:02:00,65.8,57.3,25.28,SE,131,6.7,6.7,74,0.00,,---,0.00,VWS V14.01,2013-08-03 13:02:00,
2013-08-03 07:03:00,66.0,57.5,25.28,ESE,116,3.6,6.7,74,0.00,,---,0.00,VWS V14.01,2013-08-03 13:03:00,
2013-08-03 07:05:00,66.2,56.5,25.28,SE,124,3.6,3.6,71,0.00,,---,0.00,VWS V14.01,2013-08-03 13:05:00,
2013-08-03 07:07:00,66.2,55.7,25.28,ESE,121,4.5,11.9,69,0.00,,---,0.00,VWS V14.01,2013-08-03 13:07:00,
2013-08-03 07:09:00,66.0,56.0,25.28,ESE,104,8.1,8.1,70,0.00,,---,0.00,VWS V14.01,2013-08-03 13:09:00,
2013-08-03 07:12:00,65.8,55.8,25.28,SSE,163,5.8,5.8,70,0.00,,---,0.00,VWS V14.01,2013-08-03 13:12:00,
2013-08-03 07:14:00,65.7,56.0,25.28,SE,145,2.7,8.1,71,0.00,,---,0.00,VWS V14.01,2013-08-03 13:14:00,
2013-08-03 07:16:00,65.5,55.8,25.28,ESE,111,3.1,4.5,71,0.00,,---,0.00,VWS V14.01,2013-08-03 13:16:00,
2013-08-03 07:17:00,65.5,56.2,25.28,ESE,109,2.2,3.1,72,0.00,,---,0.00,VWS V14.01,2013-08-03 13:17:00,
2013-08-03 07:18:00,65.5,56.2,25.31,SSE,158,4.0,4.0,72,0.00,,---,0.00,VWS V14.01,2013-08-03 13:18:00,
2013-08-03 07:22:00,65.3,57.2,25.31,ENE,75,6.3,6.3,75,0.00,,---,0.00,VWS V14.01,2013-08-03 13:22:00,
2013-08-03 07:23:00,65.3,57.2,25.31,East,93,9.2,9.2,75,0.00,,---,0.00,VWS V14.01,2013-08-03 13:23:00,
2013-08-03 07:25:00,65.1,57.7,25.31,ESE,115,8.7,8.7,77,0.00,,---,0.00,VWS V14.01,2013-08-03 13:25:00,
2013-08-03 07:29:00,65.1,57.7,25.31,ESE,107,3.6,7.6,77,0.00,,---,0.00,VWS V14.01,2013-08-03 13:29:00,
2013-08-03 07:30:00,65.1,57.7,25.31,East,81,5.4,5.4,77,0.00,,---,0.00,VWS V14.01,2013-08-03 13:30:00,
2013-08-03 07:31:00,65.1,57.7,25.31,ENE,67,5.8,5.8,77,0.00,,---,0.00,VWS V14.01,2013-08-03 13:31:00,
2013-08-03 07:33:00,65.1,57.7,25.31,NE,54,3.1,5.4,77,0.00,,---,0.00,VWS V14.01,2013-08-03 13:33:00,
2013-08-03 07:36:00,65.1,57.7,25.31,East,89,6.3,6.3,77,0.00,,---,0.00,VWS V14.01,2013-08-03 13:36:00,
2013-08-03 07:40:00,65.3,57.5,25.31,SE,131,6.3,6.3,76,0.00,,---,0.00,VWS V14.01,2013-08-03 13:40:00,
2013-08-03 07:41:00,65.3,57.5,25.31,East,92,4.0,6.3,76,0.00,,---,0.00,VWS V14.01,2013-08-03 13:41:00,
2013-08-03 07:42:00,65.5,57.7,25.31,NE,52,6.3,6.3,76,0.00,,---,0.00,VWS V14.01,2013-08-03 13:42:00,
2013-08-03 07:44:00,65.5,58.1,25.31,North,4,5.4,5.4,77,0.00,,---,0.00,VWS V14.01,2013-08-03 13:44:00,
2013-08-03 07:47:00,65.3,57.5,25.31,ESE,122,3.6,3.6,76,0.00,,---,0.00,VWS V14.01,2013-08-03 13:47:00,
2013-08-03 07:49:00,65.3,57.9,25.31,ESE,120,4.5,5.4,77,0.00,,---,0.00,VWS V14.01,2013-08-03 13:49:00,
2013-08-03 07:50:00,65.3,57.9,25.31,East,80,5.4,11.0,77,0.00,,---,0.00,VWS V14.01,2013-08-03 13:50:00,
2013-08-03 07:52:00,65.3,57.9,25.31,ENE,66,8.7,8.7,77,0.00,,---,0.00,VWS V14.01,2013-08-03 13:52:00,
2013-08-03 07:53:00,65.3,57.5,25.31,ESE,121,8.1,8.7,76,0.00,,---,0.00,VWS V14.01,2013-08-03 13:53:00,
2013-08-03 07:54:00,65.3,57.9,25.31,East,91,5.8,8.7,77,0.00,,---,0.00,VWS V14.01,2013-08-03 13:54:00,
2013-08-03 07:55:00,65.3,57.9,25.31,East,95,6.3,6.3,77,0.00,,---,0.00,VWS V14.01,2013-08-03 13:55:00,
2013-08-03 07:57:00,65.1,57.7,25.31,East,91,10.5,10.5,77,0.00,,---,0.00,VWS V14.01,2013-08-03 13:57:00,
2013-08-03 07:59:00,65.1,58.1,25.31,SSE,156,5.4,7.6,78,0.00,,---,0.00,VWS V14.01,2013-08-03 13:59:00,
2013-08-03 08:01:00,65.1,58.1,25.31,SSE,155,8.1,9.2,78,0.00,,---,0.00,VWS V14.01,2013-08-03 14:01:00,
2013-08-03 08:02:00,65.1,58.1,25.31,NE,50,7.6,8.1,78,0.00,,---,0.00,VWS V14.01,2013-08-03 14:02:00,
2013-08-03 08:03:00,65.1,58.1,25.31,ENE,58,3.6,7.6,78,0.00,,---,0.00,VWS V14.01,2013-08-03 14:03:00,
2013-08-03 08:07:00,65.1,58.1,25.31,ESE,118,7.6,7.6,78,0.00,,---,0.00,VWS V14.01,2013-08-03 14:07:00,
2013-08-03 08:08:00,65.1,58.1,25.31,ESE,110,5.8,8.3,78,0.00,,---,0.00,VWS V14.01,2013-08-03 14:08:00,
2013-08-03 08:10:00,65.3,57.9,25.31,East,84,4.9,5.4,77,0.00,,---,0.00,VWS V14.01,2013-08-03 14:10:00,
2013-08-03 08:11:00,65.3,57.9,25.31,NE,51,3.6,8.1,77,0.00,,---,0.00,VWS V14.01,2013-08-03 14:11:00,
2013-08-03 08:13:00,65.3,58.3,25.31,East,84,3.6,4.0,78,0.00,,---,0.00,VWS V14.01,2013-08-03 14:13:00,
2013-08-03 08:16:00,65.5,58.1,25.31,ENE,68,8.1,8.7,77,0.00,,---,0.00,VWS V14.01,2013-08-03 14:16:00,
2013-08-03 08:17:00,65.5,58.1,25.31,NE,46,5.4,8.1,77,0.00,,---,0.00,VWS V14.01,2013-08-03 14:17:00,
2013-08-03 08:20:00,65.7,58.3,25.31,East,81,2.2,4.9,77,0.00,,---,0.00,VWS V14.01,2013-08-03 14:20:00,
2013-08-03 08:21:00,65.7,58.3,25.31,ESE,107,4.0,4.0,77,0.00,,---,0.00,VWS V14.01,2013-08-03 14:21:00,
2013-08-03 08:22:00,65.7,58.3,25.31,ESE,107,4.0,4.0,77,0.00,,---,0.00,VWS V14.01,2013-08-03 14:22:00,
2013-08-03 08:23:00,65.7,58.3,25.31,ESE,103,5.4,5.4,77,0.00,,---,0.00,VWS V14.01,2013-08-03 14:23:00,
2013-08-03 08:26:00,65.8,58.1,25.31,SE,146,8.7,8.7,76,0.00,,---,0.00,VWS V14.01,2013-08-03 14:26:00,
2013-08-03 08:27:00,65.8,58.1,25.31,ESE,102,5.4,8.7,76,0.00,,---,0.00,VWS V14.01,2013-08-03 14:27:00,
2013-08-03 08:30:00,66.0,58.6,25.31,East,98,5.4,5.8,77,0.00,,---,0.00,VWS V14.01,2013-08-03 14:30:00,
2013-08-03 08:33:00,66.0,57.5,25.31,East,86,5.4,9.6,74,0.00,,---,0.00,VWS V14.01,2013-08-03 14:33:00,
2013-08-03 08:36:00,66.2,57.7,25.31,East,82,8.3,8.3,74,0.00,,---,0.00,VWS V14.01,2013-08-03 14:36:00,
2013-08-03 08:41:00,66.4,57.5,25.31,East,83,6.3,6.3,73,0.00,,---,0.00,VWS V14.01,2013-08-03 14:41:00,
2013-08-03 08:42:00,66.6,57.7,25.31,ESE,110,6.3,6.3,73,0.00,,---,0.00,VWS V14.01,2013-08-03 14:42:00,
2013-08-03 08:45:00,66.6,57.7,25.31,East,84,0.0,6.3,73,0.00,,---,0.00,VWS V14.01,2013-08-03 14:45:00,
2013-08-03 08:48:00,66.7,58.2,25.31,East,97,5.4,5.4,74,0.00,,---,0.00,VWS V14.01,2013-08-03 14:48:00,
2013-08-03 08:49:00,66.9,58.4,25.31,ENE,64,4.0,5.4,74,0.00,,---,0.00,VWS V14.01,2013-08-03 14:49:00,
2013-08-03 08:50:00,67.1,58.5,25.31,ENE,64,4.0,4.0,74,0.00,,---,0.00,VWS V14.01,2013-08-03 14:50:00,
2013-08-03 08:52:00,67.3,58.3,25.31,NNW,330,4.0,4.0,73,0.00,,---,0.00,VWS V14.01,2013-08-03 14:52:00,
2013-08-03 08:54:00,67.3,58.3,25.31,NW,314,4.0,4.0,73,0.00,,---,0.00,VWS V14.01,2013-08-03 14:54:00,
2013-08-03 08:55:00,67.5,58.9,25.31,ESE,109,3.6,4.0,74,0.00,,---,0.00,VWS V14.01,2013-08-03 14:55:00,
2013-08-03 08:56:00,67.5,58.9,25.31,ESE,109,3.6,3.6,74,0.00,,---,0.00,VWS V14.01,2013-08-03 14:56:00,
2013-08-03 08:59:00,67.5,58.5,25.31,NNW,342,3.1,4.9,73,0.00,,---,0.00,VWS V14.01,2013-08-03 14:59:00,
2013-08-03 09:02:00,67.5,58.1,25.31,NW,314,5.8,5.8,72,0.00,,---,0.00,VWS V14.01,2013-08-03 15:02:00,
2013-08-03 09:03:00,67.6,58.3,100.00,NNW,343,3.1,6.3,72,0.00,,---,0.00,VWS V14.01,2013-08-03 15:03:00,
2013-08-03 09:04:00,67.6,58.3,100.00,NNW,343,3.1,3.1,72,0.00,,---,0.00,VWS V14.01,2013-08-03 15:04:00,
2013-08-03 09:08:00,67.8,57.3,25.31,ENE,73,4.0,5.4,69,0.00,,---,0.00,VWS V14.01,2013-08-03 15:08:00,
2013-08-03 09:09:00,67.8,57.3,25.31,ENE,66,3.1,4.0,69,0.00,,---,0.00,VWS V14.01,2013-08-03 15:09:00,
2013-08-03 09:10:00,67.8,57.3,25.31,East,97,4.5,4.5,69,0.00,,---,0.00,VWS V14.01,2013-08-03 15:10:00,
2013-08-03 09:11:00,67.8,57.3,25.31,East,88,5.8,5.8,69,0.00,,---,0.00,VWS V14.01,2013-08-03 15:11:00,
2013-08-03 09:13:00,67.8,56.9,25.31,ENE,67,3.6,3.6,68,0.00,,---,0.00,VWS V14.01,2013-08-03 15:13:00,
2013-08-03 09:17:00,68.0,57.5,25.31,NNE,23,2.2,3.6,69,0.00,,---,0.00,VWS V14.01,2013-08-03 15:17:00,
2013-08-03 09:18:00,68.0,57.5,25.31,ENE,62,4.9,4.9,69,0.00,,---,0.00,VWS V14.01,2013-08-03 15:18:00,
2013-08-03 09:20:00,68.2,57.2,25.31,SSE,151,2.7,2.7,68,0.00,,---,0.00,VWS V14.01,2013-08-03 15:20:00,
2013-08-03 09:22:00,68.2,57.2,25.31,NE,54,4.0,4.0,68,0.00,,---,0.00,VWS V14.01,2013-08-03 15:22:00,
2013-08-03 09:24:00,68.4,57.4,25.31,NE,54,4.0,4.0,68,0.00,,---,0.00,VWS V14.01,2013-08-03 15:24:00,
2013-08-03 09:25:00,68.4,57.8,25.31,NNE,25,3.6,4.0,69,0.00,,---,0.00,VWS V14.01,2013-08-03 15:25:00,
2013-08-03 09:28:00,68.4,57.0,25.31,SE,126,5.4,5.4,67,0.00,,---,0.00,VWS V14.01,2013-08-03 15:28:00,
2013-08-03 09:29:00,68.4,57.4,25.31,SE,126,5.4,5.4,68,0.00,,---,0.00,VWS V14.01,2013-08-03 15:29:00,
2013-08-03 09:30:00,68.4,57.0,25.31,SE,126,5.4,5.4,67,0.00,,---,0.00,VWS V14.01,2013-08-03 15:30:00,
2013-08-03 09:35:00,68.4,57.8,25.31,NNE,29,4.0,4.0,69,0.00,,---,0.00,VWS V14.01,2013-08-03 15:35:00,
2013-08-03 09:36:00,68.4,57.8,25.31,NNE,18,4.0,4.0,69,0.00,,---,0.00,VWS V14.01,2013-08-03 15:36:00,
2013-08-03 09:37:00,68.5,58.0,25.31,East,84,3.1,4.0,69,0.00,,---,0.00,VWS V14.01,2013-08-03 15:37:00,
2013-08-03 09:38:00,68.5,58.0,25.31,NNE,32,3.6,3.6,69,0.00,,---,0.00,VWS V14.01,2013-08-03 15:38:00,
2013-08-03 09:39:00,68.5,57.6,25.31,NNE,32,3.6,3.6,68,0.00,,---,0.00,VWS V14.01,2013-08-03 15:39:00,
2013-08-03 09:40:00,68.5,57.6,25.31,NNE,32,3.6,3.6,68,0.00,,---,0.00,VWS V14.01,2013-08-03 15:40:00,
2013-08-03 09:45:00,68.5,58.0,25.31,NW,315,5.8,5.8,69,0.00,,---,0.00,VWS V14.01,2013-08-03 15:45:00,
2013-08-03 09:46:00,68.5,58.0,25.31,ENE,69,3.1,5.8,69,0.00,,---,0.00,VWS V14.01,2013-08-03 15:46:00,
2013-08-03 09:49:00,68.5,57.6,25.31,ENE,69,3.1,3.1,68,0.00,,---,0.00,VWS V14.01,2013-08-03 15:49:00,
2013-08-03 09:50:00,68.5,57.6,25.31,North,357,2.2,3.1,68,0.00,,---,0.00,VWS V14.01,2013-08-03 15:50:00,
2013-08-03 09:51:00,68.5,57.6,25.31,North,357,2.2,2.2,68,0.00,,---,0.00,VWS V14.01,2013-08-03 15:51:00,
2013-08-03 09:56:00,68.5,57.6,25.31,NNW,331,4.9,4.9,68,0.00,,---,0.00,VWS V14.01,2013-08-03 15:56:00,
2013-08-03 09:57:00,68.5,57.6,25.31,NNE,15,2.7,4.9,68,0.00,,---,0.00,VWS V14.01,2013-08-03 15:57:00,
2013-08-03 10:01:00,68.4,57.4,25.31,NE,49,2.7,2.7,68,0.00,,---,0.00,VWS V14.01,2013-08-03 16:01:00,
2013-08-03 10:03:00,68.2,57.2,25.31,WNW,303,5.8,5.8,68,0.00,,---,0.00,VWS V14.01,2013-08-03 16:03:00,
2013-08-03 10:05:00,68.2,57.2,25.31,ESE,102,2.7,5.4,68,0.00,,---,0.00,VWS V14.01,2013-08-03 16:05:00,
2013-08-03 10:07:00,68.0,57.1,25.31,ESE,107,2.7,2.7,68,0.00,,---,0.00,VWS V14.01,2013-08-03 16:07:00,
2013-08-03 10:09:00,67.8,57.3,25.31,ESE,107,2.7,2.7,69,0.00,,---,0.00,VWS V14.01,2013-08-03 16:09:00,
2013-08-03 10:10:00,67.8,57.3,25.31,ESE,107,2.7,2.7,69,0.00,,---,0.00,VWS V14.01,2013-08-03 16:10:00,
2013-08-03 10:11:00,67.8,57.7,25.31,East,83,2.7,2.7,70,0.00,,---,0.00,VWS V14.01,2013-08-03 16:11:00,
2013-08-03 10:13:00,67.8,57.7,25.31,ESE,109,3.6,3.6,70,0.00,,---,0.00,VWS V14.01,2013-08-03 16:13:00,
2013-08-03 10:14:00,67.8,57.7,25.31,ESE,109,3.6,3.6,70,0.00,,---,0.00,VWS V14.01,2013-08-03 16:14:00,
2013-08-03 10:18:00,68.0,57.9,25.31,ENE,78,2.7,2.7,70,0.00,,---,0.00,VWS V14.01,2013-08-03 16:18:00,
2013-08-03 10:19:00,68.0,57.9,25.31,ENE,78,2.7,2.7,70,0.00,,---,0.00,VWS V14.01,2013-08-03 16:19:00,
2013-08-03 10:20:00,68.0,57.9,25.31,ENE,78,2.7,2.7,70,0.00,,---,0.00,VWS V14.01,2013-08-03 16:20:00,
2013-08-03 10:21:00,68.2,58.0,25.31,ENE,78,2.7,2.7,70,0.00,,---,0.00,VWS V14.01,2013-08-03 16:21:00,
2013-08-03 10:25:00,68.2,57.6,25.31,East,91,3.1,3.1,69,0.00,,---,0.00,VWS V14.01,2013-08-03 16:25:00,
2013-08-03 10:26:00,68.4,57.4,25.31,East,91,3.1,3.1,68,0.00,,---,0.00,VWS V14.01,2013-08-03 16:26:00,
2013-08-03 10:27:00,68.4,57.4,25.31,East,100,5.4,5.4,68,0.00,,---,0.00,VWS V14.01,2013-08-03 16:27:00,
2013-08-03 10:29:00,68.5,57.6,25.31,ESE,121,5.4,5.4,68,0.00,,---,0.00,VWS V14.01,2013-08-03 16:29:00,
2013-08-03 10:34:00,69.3,58.3,25.31,NNW,328,2.2,2.2,68,0.00,,---,0.00,VWS V14.01,2013-08-03 16:34:00,
2013-08-03 10:36:00,69.3,58.3,25.31,NNW,328,2.2,2.2,68,0.00,,---,0.00,VWS V14.01,2013-08-03 16:36:00,
2013-08-03 10:38:00,69.6,57.8,25.31,East,100,5.8,5.8,66,0.00,,---,0.00,VWS V14.01,2013-08-03 16:38:00,
2013-08-03 10:39:00,69.6,57.3,25.31,ESE,118,2.2,5.8,65,0.00,,---,0.00,VWS V14.01,2013-08-03 16:39:00,
2013-08-03 10:40:00,69.6,57.3,25.31,WNW,300,2.2,2.7,65,0.00,,---,0.00,VWS V14.01,2013-08-03 16:40:00,
2013-08-03 10:41:00,70.0,57.7,25.31,ENE,65,3.1,3.1,65,0.00,,---,0.00,VWS V14.01,2013-08-03 16:41:00,
2013-08-03 10:43:00,70.2,58.3,25.31,NE,50,3.6,3.6,66,0.00,,---,0.00,VWS V14.01,2013-08-03 16:43:00,
2013-08-03 10:45:00,70.5,57.8,25.31,NW,306,2.2,2.2,64,0.00,,---,0.00,VWS V14.01,2013-08-03 16:45:00,
2013-08-03 10:46:00,70.5,57.3,25.31,NW,306,2.2,2.2,63,0.00,,---,0.00,VWS V14.01,2013-08-03 16:46:00,
2013-08-03 10:47:00,70.5,57.3,25.31,NW,306,2.2,2.2,63,0.00,,---,0.00,VWS V14.01,2013-08-03 16:47:00,
2013-08-03 10:49:00,70.7,57.1,25.31,East,90,4.0,4.0,62,0.00,,---,0.00,VWS V14.01,2013-08-03 16:49:00,
2013-08-03 10:52:00,70.9,57.2,25.31,North,3,3.1,3.1,62,0.00,,---,0.00,VWS V14.01,2013-08-03 16:52:00,
2013-08-03 10:54:00,71.1,57.4,25.31,NE,38,3.1,3.1,62,0.00,,---,0.00,VWS V14.01,2013-08-03 16:54:00,
2013-08-03 10:55:00,71.2,58.0,25.31,NE,38,0.0,3.1,63,0.00,,---,0.00,VWS V14.01,2013-08-03 16:55:00,
2013-08-03 10:56:00,71.4,57.7,25.31,NE,38,0.0,0.0,62,0.00,,---,0.00,VWS V14.01,2013-08-03 16:56:00,
2013-08-03 10:57:00,71.4,57.7,25.31,NE,38,0.0,0.0,62,0.00,,---,0.00,VWS V14.01,2013-08-03 16:57:00,
2013-08-03 11:00:00,72.0,58.2,25.31,North,0,3.6,3.6,62,0.00,,---,0.00,VWS V14.01,2013-08-03 17:00:00,
2013-08-03 11:01:00,72.3,58.1,25.31,North,0,3.6,3.6,61,0.00,,---,0.00,VWS V14.01,2013-08-03 17:01:00,
2013-08-03 11:05:00,72.9,56.3,25.31,East,101,3.1,3.1,56,0.00,,---,0.00,VWS V14.01,2013-08-03 17:05:00,
2013-08-03 11:06:00,72.9,56.8,25.28,NNE,25,4.0,4.0,57,0.00,,---,0.00,VWS V14.01,2013-08-03 17:06:00,
2013-08-03 11:07:00,72.7,56.1,25.28,ENE,61,4.0,4.0,56,0.00,,---,0.00,VWS V14.01,2013-08-03 17:07:00,
2013-08-03 11:09:00,72.9,57.2,25.28,ENE,61,4.0,4.0,58,0.00,,---,0.00,VWS V14.01,2013-08-03 17:09:00,
2013-08-03 11:11:00,72.9,55.3,25.28,NNE,31,3.1,3.1,54,0.00,,---,0.00,VWS V14.01,2013-08-03 17:11:00,
2013-08-03 11:13:00,73.0,56.4,25.28,East,98,4.0,4.0,56,0.00,,---,0.00,VWS V14.01,2013-08-03 17:13:00,
2013-08-03 11:14:00,73.0,56.4,25.28,East,98,4.0,4.0,56,0.00,,---,0.00,VWS V14.01,2013-08-03 17:14:00,
2013-08-03 11:17:00,73.4,57.3,25.28,NNW,328,2.2,4.9,57,0.00,,---,0.00,VWS V14.01,2013-08-03 17:17:00,
2013-08-03 11:18:00,73.6,58.4,25.28,NNW,328,2.2,2.2,59,0.00,,---,0.00,VWS V14.01,2013-08-03 17:18:00,
2013-08-03 11:19:00,73.6,58.4,25.28,NW,314,3.1,3.1,59,0.00,,---,0.00,VWS V14.01,2013-08-03 17:19:00,
2013-08-03 11:24:00,76.1,57.2,25.28,NNW,345,2.2,4.9,52,0.00,,---,0.00,VWS V14.01,2013-08-03 17:24:00,
2013-08-03 11:25:00,76.3,57.4,25.28,NNW,345,2.2,2.2,52,0.00,,---,0.00,VWS V14.01,2013-08-03 17:25:00,
2013-08-03 11:27:00,76.8,57.3,25.28,NNW,345,2.2,2.2,51,0.00,,---,0.00,VWS V14.01,2013-08-03 17:27:00,
2013-08-03 11:30:00,77.7,55.9,25.28,NNW,343,4.0,4.0,47,0.00,,---,0.00,VWS V14.01,2013-08-03 17:30:00,
2013-08-03 11:31:00,77.9,54.9,25.28,NE,40,3.6,4.0,45,0.00,,---,0.00,VWS V14.01,2013-08-03 17:31:00,
2013-08-03 11:32:00,78.1,54.4,25.28,NE,40,3.6,3.6,44,0.00,,---,0.00,VWS V14.01,2013-08-03 17:32:00,
2013-08-03 11:36:00,78.4,56.0,25.28,NNW,333,3.1,3.6,46,0.00,,---,0.00,VWS V14.01,2013-08-03 17:36:00,
2013-08-03 11:37:00,78.8,55.1,25.28,NNE,16,5.4,5.4,44,0.00,,---,0.00,VWS V14.01,2013-08-03 17:37:00,
2013-08-03 11:38:00,78.8,54.4,25.28,NNE,16,5.4,5.4,43,0.00,,---,0.00,VWS V14.01,2013-08-03 17:38:00,
2013-08-03 11:39:00,78.8,54.4,25.28,NNE,16,5.4,5.4,43,0.00,,---,0.00,VWS V14.01,2013-08-03 17:39:00,
2013-08-03 11:42:00,78.8,53.1,25.28,East,86,2.7,3.6,41,0.00,,---,0.00,VWS V14.01,2013-08-03 17:42:00,
2013-08-03 11:45:00,78.6,54.9,25.28,East,100,2.7,2.7,44,0.00,,---,0.00,VWS V14.01,2013-08-03 17:45:00,
2013-08-03 11:48:00,78.8,54.4,25.28,NE,36,3.6,3.6,43,0.00,,---,0.00,VWS V14.01,2013-08-03 17:48:00,
2013-08-03 11:50:00,78.6,54.3,25.28,NE,51,3.1,4.0,43,0.00,,---,0.00,VWS V14.01,2013-08-03 17:50:00,
2013-08-03 11:51:00,78.6,53.6,25.28,NE,51,3.1,3.1,42,0.00,,---,0.00,VWS V14.01,2013-08-03 17:51:00,
2013-08-03 11:52:00,78.3,53.3,25.28,NE,51,3.1,3.1,42,0.00,,---,0.00,VWS V14.01,2013-08-03 17:52:00,
2013-08-03 11:55:00,77.9,54.3,25.28,NE,38,0.0,3.1,44,0.00,,---,0.00,VWS V14.01,2013-08-03 17:55:00,
2013-08-03 11:56:00,77.9,54.3,25.28,East,84,5.4,5.4,44,0.00,,---,0.00,VWS V14.01,2013-08-03 17:56:00,
2013-08-03 11:59:00,76.8,52.0,25.28,East,93,3.6,3.6,42,0.00,,---,0.00,VWS V14.01,2013-08-03 17:59:00,
2013-08-03 12:00:00,75.9,52.5,25.28,NE,47,4.0,4.0,44,0.00,,---,0.00,VWS V14.01,2013-08-03 18:00:00,
2013-08-03 12:02:00,75.7,52.3,25.28,ESE,115,3.1,3.1,44,0.00,,---,0.00,VWS V14.01,2013-08-03 18:02:00,
2013-08-03 12:07:00,74.7,53.1,25.28,NNE,20,0.0,3.1,47,0.00,,---,0.00,VWS V14.01,2013-08-03 18:07:00,
2013-08-03 12:08:00,74.7,53.1,25.28,NNE,20,0.0,0.0,47,0.00,,---,0.00,VWS V14.01,2013-08-03 18:08:00,
2013-08-03 12:10:00,74.7,53.1,25.28,NE,35,0.0,0.0,47,0.00,,---,0.00,VWS V14.01,2013-08-03 18:10:00,
2013-08-03 12:12:00,74.8,54.4,25.28,ESE,106,4.0,4.0,49,0.00,,---,0.00,VWS V14.01,2013-08-03 18:12:00,
2013-08-03 12:13:00,74.8,52.7,25.28,SE,133,4.0,4.0,46,0.00,,---,0.00,VWS V14.01,2013-08-03 18:13:00,
2013-08-03 12:17:00,75.0,53.4,25.28,East,89,3.6,5.8,47,0.00,,---,0.00,VWS V14.01,2013-08-03 18:17:00,
2013-08-03 12:19:00,75.0,52.3,25.28,ENE,70,3.1,3.6,45,0.00,,---,0.00,VWS V14.01,2013-08-03 18:19:00,
2013-08-03 12:20:00,74.8,52.7,25.28,ENE,70,3.1,3.1,46,0.00,,---,0.00,VWS V14.01,2013-08-03 18:20:00,
2013-08-03 12:21:00,74.8,52.7,25.28,ESE,112,2.7,3.1,46,0.00,,---,0.00,VWS V14.01,2013-08-03 18:21:00,
2013-08-03 12:23:00,74.8,52.7,25.28,East,96,3.1,3.1,46,0.00,,---,0.00,VWS V14.01,2013-08-03 18:23:00,
2013-08-03 12:27:00,74.7,53.7,25.28,East,97,5.4,5.8,48,0.00,,---,0.00,VWS V14.01,2013-08-03 18:27:00,
2013-08-03 12:28:00,74.7,53.7,25.28,East,97,5.4,5.4,48,0.00,,---,0.00,VWS V14.01,2013-08-03 18:28:00,
2013-08-03 12:30:00,74.8,52.7,25.28,ESE,116,5.4,5.4,46,0.00,,---,0.00,VWS V14.01,2013-08-03 18:30:00,
2013-08-03 12:33:00,75.2,55.3,25.28,NE,34,3.6,5.4,50,0.00,,---,0.00,VWS V14.01,2013-08-03 18:33:00,
2013-08-03 12:34:00,75.2,53.0,25.28,NE,37,4.9,4.9,46,0.00,,---,0.00,VWS V14.01,2013-08-03 18:34:00,
2013-08-03 12:36:00,75.6,53.3,25.28,ESE,108,2.7,4.9,46,0.00,,---,0.00,VWS V14.01,2013-08-03 18:36:00,
2013-08-03 12:37:00,75.6,53.3,25.28,ESE,108,2.7,2.7,46,0.00,,---,0.00,VWS V14.01,2013-08-03 18:37:00,
2013-08-03 12:40:00,76.1,52.6,25.25,SE,131,5.8,5.8,44,0.00,,---,0.00,VWS V14.01,2013-08-03 18:40:00,
2013-08-03 12:41:00,76.1,52.6,25.25,SE,131,5.8,5.8,44,0.00,,---,0.00,VWS V14.01,2013-08-03 18:41:00,
2013-08-03 12:42:00,76.1,53.2,25.25,ESE,103,2.7,5.8,45,0.00,,---,0.00,VWS V14.01,2013-08-03 18:42:00,
2013-08-03 12:43:00,76.1,52.6,25.25,NE,50,2.7,2.7,44,0.00,,---,0.00,VWS V14.01,2013-08-03 18:43:00,
2013-08-03 12:45:00,76.1,53.8,25.25,NNW,346,2.2,3.1,46,0.00,,---,0.00,VWS V14.01,2013-08-03 18:45:00,
2013-08-03 12:46:00,76.1,53.8,25.25,NE,53,2.7,2.7,46,0.00,,---,0.00,VWS V14.01,2013-08-03 18:46:00,
2013-08-03 12:49:00,76.1,53.2,25.25,NNE,33,2.7,2.7,45,0.00,,---,0.00,VWS V14.01,2013-08-03 18:49:00,
2013-08-03 12:51:00,75.9,53.1,25.25,NNE,33,2.7,2.7,45,0.00,,---,0.00,VWS V14.01,2013-08-03 18:51:00,
2013-08-03 12:53:00,75.9,53.1,25.25,ESE,116,0.0,2.2,45,0.00,,---,0.00,VWS V14.01,2013-08-03 18:53:00,
2013-08-03 12:54:00,75.6,52.1,25.25,SSE,158,4.0,6.3,44,0.00,,---,0.00,VWS V14.01,2013-08-03 18:54:00,
2013-08-03 12:57:00,75.2,53.0,25.25,SE,141,3.6,3.6,46,0.00,,---,0.00,VWS V14.01,2013-08-03 18:57:00,
2013-08-03 12:58:00,75.2,53.0,25.25,ESE,120,2.7,3.6,46,0.00,,---,0.00,VWS V14.01,2013-08-03 18:58:00,
2013-08-03 13:00:00,75.0,54.0,25.25,ESE,111,0.0,3.1,48,0.00,,---,0.00,VWS V14.01,2013-08-03 19:00:00,
2013-08-03 13:02:00,75.0,52.9,25.25,NE,48,3.6,3.6,46,0.00,,---,0.00,VWS V14.01,2013-08-03 19:02:00,
2013-08-03 13:03:00,75.0,54.0,25.25,NNE,31,4.0,4.0,48,0.00,,---,0.00,VWS V14.01,2013-08-03 19:03:00,
2013-08-03 13:04:00,75.2,53.6,25.25,ESE,104,4.9,4.9,47,0.00,,---,0.00,VWS V14.01,2013-08-03 19:04:00,
2013-08-03 13:06:00,75.2,54.2,25.25,East,95,4.9,4.9,48,0.00,,---,0.00,VWS V14.01,2013-08-03 19:06:00,
2013-08-03 13:08:00,75.2,54.2,25.25,NE,45,2.7,2.7,48,0.00,,---,0.00,VWS V14.01,2013-08-03 19:08:00,
2013-08-03 13:09:00,75.2,53.6,25.25,WNW,294,0.0,2.7,47,0.00,,---,0.00,VWS V14.01,2013-08-03 19:09:00,
2013-08-03 13:10:00,75.4,54.3,25.25,NE,46,2.7,2.7,48,0.00,,---,0.00,VWS V14.01,2013-08-03 19:10:00,
2013-08-03 13:13:00,75.9,56.5,25.25,East,97,3.6,3.6,51,0.00,,---,0.00,VWS V14.01,2013-08-03 19:13:00,
2013-08-03 13:14:00,76.1,53.8,25.25,ENE,72,4.5,4.5,46,0.00,,---,0.00,VWS V14.01,2013-08-03 19:14:00,
2013-08-03 13:15:00,76.1,53.8,25.25,ENE,72,4.5,4.5,46,0.00,,---,0.00,VWS V14.01,2013-08-03 19:15:00,
2013-08-03 13:18:00,76.8,54.5,25.25,NNE,25,3.6,3.6,46,0.00,,---,0.00,VWS V14.01,2013-08-03 19:18:00,
2013-08-03 13:19:00,76.8,54.5,25.25,East,99,6.3,6.3,46,0.00,,---,0.00,VWS V14.01,2013-08-03 19:19:00,
2013-08-03 13:20:00,76.8,54.5,25.25,East,99,6.3,6.3,46,0.00,,---,0.00,VWS V14.01,2013-08-03 19:20:00,
2013-08-03 13:21:00,77.2,54.2,25.25,East,99,6.3,6.3,45,0.00,,---,0.00,VWS V14.01,2013-08-03 19:21:00,
2013-08-03 13:22:00,77.2,54.2,25.25,East,99,6.3,6.3,45,0.00,,---,0.00,VWS V14.01,2013-08-03 19:22:00,
2013-08-03 13:25:00,77.4,52.5,25.25,ENE,57,2.2,2.2,42,0.00,,---,0.00,VWS V14.01,2013-08-03 19:25:00,
2013-08-03 13:26:00,77.2,53.6,25.25,ENE,57,2.2,2.2,44,0.00,,---,0.00,VWS V14.01,2013-08-03 19:26:00,
2013-08-03 13:27:00,77.0,52.8,25.25,ENE,64,5.8,5.8,43,0.00,,---,0.00,VWS V14.01,2013-08-03 19:27:00,
2013-08-03 13:28:00,77.0,52.8,25.25,NNE,15,3.6,5.8,43,0.00,,---,0.00,VWS V14.01,2013-08-03 19:28:00,
2013-08-03 13:32:00,76.8,52.7,25.25,East,86,4.9,4.9,43,0.00,,---,0.00,VWS V14.01,2013-08-03 19:32:00,
2013-08-03 13:33:00,76.8,52.7,25.25,East,86,4.9,4.9,43,0.00,,---,0.00,VWS V14.01,2013-08-03 19:33:00,
2013-08-03 13:34:00,75.4,52.6,25.25,East,101,9.6,9.6,45,0.00,,---,0.00,VWS V14.01,2013-08-03 19:34:00,
2013-08-03 13:39:00,74.5,53.0,25.22,NE,48,4.5,7.2,47,0.00,,---,0.00,VWS V14.01,2013-08-03 19:39:00,
2013-08-03 13:40:00,74.5,53.0,25.22,ENE,68,5.8,5.8,47,0.00,,---,0.00,VWS V14.01,2013-08-03 19:40:00,
2013-08-03 13:41:00,74.5,53.0,25.22,East,93,3.6,5.8,47,0.00,,---,0.00,VWS V14.01,2013-08-03 19:41:00,
2013-08-03 13:44:00,73.8,53.4,25.22,East,98,5.4,5.4,49,0.00,,---,0.00,VWS V14.01,2013-08-03 19:44:00,
2013-08-03 13:46:00,73.8,53.4,25.22,SE,141,5.8,5.8,49,0.00,,---,0.00,VWS V14.01,2013-08-03 19:46:00,
2013-08-03 13:50:00,73.8,53.4,25.22,East,82,5.8,5.8,49,0.00,,---,0.00,VWS V14.01,2013-08-03 19:50:00,
2013-08-03 13:51:00,72.9,53.7,25.22,SE,131,3.1,5.8,51,0.00,,---,0.00,VWS V14.01,2013-08-03 19:51:00,
2013-08-03 13:52:00,72.5,53.9,25.22,SE,131,3.1,3.1,52,0.00,,---,0.00,VWS V14.01,2013-08-03 19:52:00,
2013-08-03 13:56:00,72.1,54.1,25.22,ESE,111,2.2,4.9,53,0.00,,---,0.00,VWS V14.01,2013-08-03 19:56:00,
2013-08-03 13:57:00,72.1,54.1,25.22,ENE,78,7.6,7.6,53,0.00,,---,0.00,VWS V14.01,2013-08-03 19:57:00,
2013-08-03 13:58:00,72.0,55.9,25.22,SSE,157,5.4,7.6,57,0.00,,---,0.00,VWS V14.01,2013-08-03 19:58:00,
2013-08-03 14:00:00,71.8,55.3,25.22,ENE,72,10.1,10.1,56,0.00,,---,0.00,VWS V14.01,2013-08-03 20:00:00,
2013-08-03 14:02:00,71.4,54.9,25.22,ENE,72,10.1,10.1,56,0.00,,---,0.00,VWS V14.01,2013-08-03 20:02:00,
2013-08-03 14:03:00,71.4,54.9,25.22,East,88,5.4,10.1,56,0.00,,---,0.00,VWS V14.01,2013-08-03 20:03:00,
2013-08-03 14:04:00,71.1,55.5,25.22,East,88,5.4,5.4,58,0.00,,---,0.00,VWS V14.01,2013-08-03 20:04:00,
2013-08-03 14:08:00,70.5,55.5,25.22,NNE,31,3.1,5.4,59,0.00,,---,0.00,VWS V14.01,2013-08-03 20:08:00,
2013-08-03 14:09:00,70.5,55.5,25.22,NW,316,3.1,3.6,59,0.00,,---,0.00,VWS V14.01,2013-08-03 20:09:00,
2013-08-03 14:10:00,70.2,56.5,25.22,NNW,339,5.8,5.8,62,0.00,,---,0.00,VWS V14.01,2013-08-03 20:10:00,
2013-08-03 14:13:00,69.6,57.8,25.22,East,88,0.0,3.6,66,0.00,,---,0.00,VWS V14.01,2013-08-03 20:13:00,
2013-08-03 14:15:00,69.6,57.8,25.22,NE,35,2.2,2.2,66,0.00,,---,0.00,VWS V14.01,2013-08-03 20:15:00,
2013-08-03 14:18:00,68.5,57.2,25.22,ENE,72,4.0,4.0,67,0.00,,---,0.00,VWS V14.01,2013-08-03 20:18:00,
2013-08-03 14:19:00,68.5,57.2,25.22,ENE,72,4.0,4.0,67,0.00,,---,0.00,VWS V14.01,2013-08-03 20:19:00,
2013-08-03 14:20:00,68.5,57.2,25.22,ENE,72,4.0,4.0,67,0.00,,---,0.00,VWS V14.01,2013-08-03 20:20:00,
2013-08-03 14:23:00,67.5,57.7,25.22,NNW,329,2.7,4.0,71,0.00,,---,0.00,VWS V14.01,2013-08-03 20:23:00,
2013-08-03 14:25:00,66.6,56.9,25.22,NW,325,2.7,2.7,71,0.00,,---,0.00,VWS V14.01,2013-08-03 20:25:00,
2013-08-03 14:27:00,66.2,56.5,25.22,NW,306,0.0,2.7,71,0.00,,---,0.00,VWS V14.01,2013-08-03 20:27:00,
2013-08-03 14:29:00,66.2,56.5,25.22,NW,306,2.2,2.2,71,0.00,,---,0.00,VWS V14.01,2013-08-03 20:29:00,
2013-08-03 14:31:00,65.8,56.6,25.22,NW,306,2.2,2.2,72,0.00,,---,0.00,VWS V14.01,2013-08-03 20:31:00,
2013-08-03 14:32:00,65.8,56.6,25.22,NW,306,3.1,3.1,72,0.00,,---,0.00,VWS V14.01,2013-08-03 20:32:00,
2013-08-03 14:35:00,65.8,56.6,25.22,SE,141,3.6,3.6,72,0.00,,---,0.00,VWS V14.01,2013-08-03 20:35:00,
2013-08-03 14:36:00,65.7,58.3,25.22,South,181,2.2,3.6,77,0.00,,---,0.00,VWS V14.01,2013-08-03 20:36:00,
2013-08-03 14:38:00,65.7,58.3,25.22,SSW,196,0.0,2.2,77,0.00,,---,0.00,VWS V14.01,2013-08-03 20:38:00,
2013-08-03 14:41:00,65.7,59.0,25.22,SSW,197,0.0,0.0,79,0.00,,---,0.00,VWS V14.01,2013-08-03 20:41:00,
2013-08-03 14:43:00,65.8,59.5,25.22,SSW,197,0.0,0.0,80,0.00,,---,0.00,VWS V14.01,2013-08-03 20:43:00,
2013-08-03 14:44:00,65.8,59.5,25.22,SSW,197,0.0,0.0,80,0.00,,---,0.00,VWS V14.01,2013-08-03 20:44:00,
2013-08-03 14:45:00,65.8,59.5,25.22,SSW,197,0.0,0.0,80,0.00,,---,0.00,VWS V14.01,2013-08-03 20:45:00,
2013-08-03 14:47:00,66.0,59.7,25.22,NNW,329,3.1,3.1,80,0.00,,---,0.00,VWS V14.01,2013-08-03 20:47:00,
2013-08-03 14:49:00,66.0,59.7,25.22,NW,312,0.0,3.1,80,0.00,,---,0.00,VWS V14.01,2013-08-03 20:49:00,
2013-08-03 14:50:00,66.0,60.0,25.22,NW,312,0.0,0.0,81,0.00,,---,0.00,VWS V14.01,2013-08-03 20:50:00,
2013-08-03 14:53:00,66.2,59.9,25.22,NW,312,3.1,3.1,80,0.00,,---,0.00,VWS V14.01,2013-08-03 20:53:00,
2013-08-03 14:54:00,66.2,59.9,25.22,NW,312,0.0,3.1,80,0.00,,---,0.00,VWS V14.01,2013-08-03 20:54:00,
2013-08-03 14:57:00,66.4,60.4,25.22,NW,312,2.2,2.2,81,0.00,,---,0.00,VWS V14.01,2013-08-03 20:57:00,
2013-08-03 14:59:00,66.4,60.4,25.22,NW,312,2.7,2.7,81,0.00,,---,0.00,VWS V14.01,2013-08-03 20:59:00,
2013-08-03 15:00:00,66.4,60.4,25.22,NW,312,0.0,2.7,81,0.00,,---,0.00,VWS V14.01,2013-08-03 21:00:00,
2013-08-03 15:02:00,66.6,60.6,25.22,NW,312,0.0,0.0,81,0.00,,---,0.00,VWS V14.01,2013-08-03 21:02:00,
2013-08-03 15:06:00,66.6,60.2,25.22,East,84,3.1,3.1,80,0.00,,---,0.00,VWS V14.01,2013-08-03 21:06:00,
2013-08-03 15:08:00,66.6,59.8,25.22,East,84,3.1,3.1,79,0.00,,---,0.00,VWS V14.01,2013-08-03 21:08:00,
2013-08-03 15:09:00,66.6,59.8,25.22,SSE,155,5.4,5.4,79,0.00,,---,0.00,VWS V14.01,2013-08-03 21:09:00,
2013-08-03 15:11:00,66.4,59.7,25.22,ENE,74,5.4,5.8,79,0.00,,---,0.00,VWS V14.01,2013-08-03 21:11:00,
2013-08-03 15:12:00,66.4,59.7,25.22,ESE,120,3.6,5.4,79,0.00,,---,0.00,VWS V14.01,2013-08-03 21:12:00,
2013-08-03 15:14:00,66.4,59.7,25.22,East,101,3.6,3.6,79,0.00,,---,0.00,VWS V14.01,2013-08-03 21:14:00,
2013-08-03 15:17:00,66.4,59.7,25.22,NE,46,4.9,7.6,79,0.00,,---,0.00,VWS V14.01,2013-08-03 21:17:00,
2013-08-03 15:18:00,66.2,59.5,25.22,ESE,114,5.8,5.8,79,0.00,,---,0.00,VWS V14.01,2013-08-03 21:18:00,
2013-08-03 15:20:00,66.2,59.5,25.22,ESE,116,2.7,5.8,79,0.00,,---,0.00,VWS V14.01,2013-08-03 21:20:00,
2013-08-03 15:22:00,66.0,59.7,25.22,ESE,115,0.0,2.7,80,0.00,,---,0.00,VWS V14.01,2013-08-03 21:22:00,
2013-08-03 15:25:00,66.0,60.0,25.22,South,172,4.9,8.1,81,0.00,,---,0.00,VWS V14.01,2013-08-03 21:25:00,
2013-08-03 15:27:00,66.0,60.0,25.22,WNW,285,2.7,2.7,81,0.00,,---,0.00,VWS V14.01,2013-08-03 21:27:00,
2013-08-03 15:30:00,65.8,60.5,25.22,NE,40,3.1,6.3,83,0.00,,---,0.00,VWS V14.01,2013-08-03 21:30:00,
2013-08-03 15:32:00,65.8,60.9,25.22,NE,40,3.1,3.1,84,0.00,,---,0.00,VWS V14.01,2013-08-03 21:32:00,
2013-08-03 15:33:00,65.8,60.9,25.22,ESE,118,7.6,7.6,84,0.00,,---,0.00,VWS V14.01,2013-08-03 21:33:00,
2013-08-03 15:34:00,65.7,61.0,25.22,ESE,118,7.6,7.6,85,0.00,,---,0.00,VWS V14.01,2013-08-03 21:34:00,
2013-08-03 15:35:00,65.7,61.0,25.22,SE,142,8.3,10.1,85,0.00,,---,0.00,VWS V14.01,2013-08-03 21:35:00,
2013-08-03 15:37:00,65.7,61.0,25.22,ESE,111,5.4,5.4,85,0.00,,---,0.00,VWS V14.01,2013-08-03 21:37:00,
2013-08-03 15:38:00,65.7,61.0,25.22,ESE,123,4.0,5.4,85,0.00,,---,0.00,VWS V14.01,2013-08-03 21:38:00,
2013-08-03 15:39:00,65.1,61.2,25.22,ESE,123,4.0,4.0,87,0.00,,---,0.00,VWS V14.01,2013-08-03 21:39:00,
2013-08-03 15:43:00,64.6,60.6,25.22,NW,309,4.0,4.0,87,0.16,,---,0.16,VWS V14.01,2013-08-03 21:43:00,
2013-08-03 15:44:00,64.6,60.6,25.22,East,80,3.1,4.0,87,0.16,,---,0.16,VWS V14.01,2013-08-03 21:44:00,
2013-08-03 15:45:00,64.4,60.5,25.22,ENE,78,5.8,5.8,87,0.16,,---,0.16,VWS V14.01,2013-08-03 21:45:00,
2013-08-03 15:49:00,64.2,60.6,25.22,NE,44,7.6,7.6,88,0.16,,---,0.16,VWS V14.01,2013-08-03 21:49:00,
2013-08-03 15:50:00,64.0,60.7,25.22,NNW,328,0.0,7.6,89,0.16,,---,0.16,VWS V14.01,2013-08-03 21:50:00,
2013-08-03 15:51:00,63.9,60.9,25.22,NNW,328,0.0,0.0,90,0.16,,---,0.16,VWS V14.01,2013-08-03 21:51:00,
2013-08-03 15:53:00,63.9,60.9,25.22,NNW,328,0.0,0.0,90,0.16,,---,0.16,VWS V14.01,2013-08-03 21:53:00,
2013-08-03 15:55:00,63.9,60.9,25.22,SSE,151,2.7,3.1,90,0.16,,---,0.16,VWS V14.01,2013-08-03 21:55:00,
2013-08-03 15:58:00,63.5,60.8,25.22,ENE,58,3.1,4.0,91,0.16,,---,0.16,VWS V14.01,2013-08-03 21:58:00,
2013-08-03 15:59:00,63.5,60.8,25.22,NE,42,2.2,3.1,91,0.16,,---,0.16,VWS V14.01,2013-08-03 21:59:00,
2013-08-03 16:00:00,63.5,60.8,25.22,NE,42,0.0,2.2,91,0.16,,---,0.16,VWS V14.01,2013-08-03 22:00:00,
2013-08-03 16:01:00,63.5,60.8,25.22,NE,42,0.0,0.0,91,0.16,,---,0.16,VWS V14.01,2013-08-03 22:01:00,
2013-08-03 16:04:00,63.1,60.5,25.22,SSE,163,0.0,0.0,91,0.16,,---,0.16,VWS V14.01,2013-08-03 22:04:00,
2013-08-03 16:06:00,63.1,60.8,25.22,SSW,202,0.0,0.0,92,0.16,,---,0.16,VWS V14.01,2013-08-03 22:06:00,
2013-08-03 16:07:00,63.1,60.8,25.22,ESE,117,4.0,4.0,92,0.20,,---,0.20,VWS V14.01,2013-08-03 22:07:00,
2013-08-03 16:10:00,63.3,61.3,25.22,SE,140,4.0,4.0,93,0.20,,---,0.20,VWS V14.01,2013-08-03 22:10:00,
2013-08-03 16:11:00,63.5,61.4,25.22,ESE,111,6.3,6.3,93,0.20,,---,0.20,VWS V14.01,2013-08-03 22:11:00,
2013-08-03 16:14:00,63.5,61.8,25.22,SSE,164,6.3,6.3,94,0.20,,---,0.20,VWS V14.01,2013-08-03 22:14:00,
2013-08-03 16:16:00,63.5,61.8,25.22,SSE,164,6.3,6.3,94,0.20,,---,0.20,VWS V14.01,2013-08-03 22:16:00,
2013-08-03 16:17:00,63.5,62.0,25.22,SSE,164,6.3,6.3,95,0.20,,---,0.20,VWS V14.01,2013-08-03 22:17:00,
2013-08-03 16:20:00,63.7,62.2,25.22,SE,125,2.7,2.7,95,0.20,,---,0.20,VWS V14.01,2013-08-03 22:20:00,
2013-08-03 16:21:00,63.7,61.9,25.22,ENE,64,2.7,2.7,94,0.20,,---,0.20,VWS V14.01,2013-08-03 22:21:00,
2013-08-03 16:22:00,63.7,61.9,25.22,ESE,122,0.0,2.7,94,0.20,,---,0.20,VWS V14.01,2013-08-03 22:22:00,
2013-08-03 16:25:00,63.7,61.9,25.22,South,175,4.0,4.0,94,0.20,,---,0.20,VWS V14.01,2013-08-03 22:25:00,
2013-08-03 16:27:00,63.7,61.9,25.22,ESE,109,3.6,3.6,94,0.20,,---,0.20,VWS V14.01,2013-08-03 22:27:00,
2013-08-03 16:28:00,63.7,61.9,25.22,NE,38,2.2,3.6,94,0.20,,---,0.20,VWS V14.01,2013-08-03 22:28:00,
2013-08-03 16:32:00,63.7,61.6,25.22,SSE,155,2.7,2.7,93,0.20,,---,0.20,VWS V14.01,2013-08-03 22:32:00,
2013-08-03 16:34:00,63.7,61.6,25.22,SSE,152,0.0,3.6,93,0.20,,---,0.20,VWS V14.01,2013-08-03 22:34:00,
2013-08-03 16:35:00,63.7,61.6,25.22,SE,145,2.7,2.7,93,0.20,,---,0.20,VWS V14.01,2013-08-03 22:35:00,
2013-08-03 16:36:00,63.7,61.6,25.22,SE,145,2.7,2.7,93,0.20,,---,0.20,VWS V14.01,2013-08-03 22:36:00,
2013-08-03 16:38:00,63.7,61.6,25.22,SSE,147,4.9,7.6,93,0.20,,---,0.20,VWS V14.01,2013-08-03 22:38:00,
2013-08-03 16:40:00,63.7,61.6,25.22,ESE,119,3.1,3.1,93,0.20,,---,0.20,VWS V14.01,2013-08-03 22:40:00,
2013-08-03 16:43:00,63.7,61.3,25.22,SE,135,2.7,2.7,92,0.04,,---,0.20,VWS V14.01,2013-08-03 22:43:00,
2013-08-03 16:44:00,63.7,61.3,25.22,SE,135,2.7,2.7,92,0.04,,---,0.20,VWS V14.01,2013-08-03 22:44:00,
2013-08-03 16:45:00,63.7,61.3,25.22,East,81,3.6,3.6,92,0.04,,---,0.20,VWS V14.01,2013-08-03 22:45:00,
2013-08-03 16:48:00,63.9,61.5,25.22,East,84,5.8,5.8,92,0.04,,---,0.20,VWS V14.01,2013-08-03 22:48:00,
2013-08-03 16:49:00,63.9,61.5,25.22,East,84,5.8,5.8,92,0.04,,---,0.20,VWS V14.01,2013-08-03 22:49:00,
2013-08-03 16:50:00,63.9,61.5,25.22,SSW,204,0.0,5.8,92,0.04,,---,0.20,VWS V14.01,2013-08-03 22:50:00,
2013-08-03 16:55:00,63.9,61.8,25.25,South,191,5.4,5.4,93,0.04,,---,0.20,VWS V14.01,2013-08-03 22:55:00,
2013-08-03 16:57:00,63.9,61.8,25.25,East,98,3.1,5.8,93,0.04,,---,0.20,VWS V14.01,2013-08-03 22:57:00,
2013-08-03 16:58:00,63.9,61.8,25.25,SSE,149,3.6,3.6,93,0.04,,---,0.20,VWS V14.01,2013-08-03 22:58:00,
2013-08-03 17:01:00,64.0,62.0,25.25,SE,137,8.1,8.1,93,0.04,,---,0.20,VWS V14.01,2013-08-03 23:01:00,
2013-08-03 17:02:00,64.0,62.0,25.25,ESE,106,3.6,8.1,93,0.04,,---,0.20,VWS V14.01,2013-08-03 23:02:00,
2013-08-03 17:03:00,64.0,62.0,25.25,ESE,106,3.6,3.6,93,0.04,,---,0.20,VWS V14.01,2013-08-03 23:03:00,
2013-08-03 17:05:00,64.0,62.0,25.25,ENE,71,2.7,2.7,93,0.04,,---,0.20,VWS V14.01,2013-08-03 23:05:00,
2013-08-03 17:07:00,63.9,61.8,25.25,ENE,71,2.7,2.7,93,0.04,,---,0.20,VWS V14.01,2013-08-03 23:07:00,
2013-08-03 17:10:00,63.9,61.8,25.25,ENE,74,0.0,0.0,93,0.00,,---,0.20,VWS V14.01,2013-08-03 23:10:00,
2013-08-03 17:13:00,63.9,61.8,25.25,SE,128,3.6,3.6,93,0.00,,---,0.20,VWS V14.01,2013-08-03 23:13:00,
2013-08-03 17:14:00,63.9,61.8,25.25,East,89,6.3,6.3,93,0.00,,---,0.20,VWS V14.01,2013-08-03 23:14:00,
2013-08-03 17:16:00,63.9,61.8,25.25,SSE,155,2.7,6.3,93,0.00,,---,0.20,VWS V14.01,2013-08-03 23:16:00,
2013-08-03 17:17:00,63.9,61.8,25.25,SSE,155,2.7,2.7,93,0.00,,---,0.20,VWS V14.01,2013-08-03 23:17:00,
2013-08-03 17:19:00,63.9,61.8,25.25,SSE,150,3.6,6.3,93,0.00,,---,0.20,VWS V14.01,2013-08-03 23:19:00,
2013-08-03 17:21:00,64.0,62.0,25.25,ENE,65,4.9,4.9,93,0.00,,---,0.20,VWS V14.01,2013-08-03 23:21:00,
2013-08-03 17:22:00,64.0,62.0,25.25,East,95,0.0,4.9,93,0.00,,---,0.20,VWS V14.01,2013-08-03 23:22:00,
2013-08-03 17:24:00,64.0,62.0,25.25,East,98,8.7,8.7,93,0.00,,---,0.20,VWS V14.01,2013-08-03 23:24:00,
2013-08-03 17:27:00,63.9,61.8,25.25,SSE,148,0.0,2.7,93,0.00,,---,0.20,VWS V14.01,2013-08-03 23:27:00,
2013-08-03 17:28:00,63.9,61.8,25.25,SSE,148,0.0,0.0,93,0.00,,---,0.20,VWS V14.01,2013-08-03 23:28:00,
2013-08-03 17:29:00,63.9,62.1,25.25,SSE,148,0.0,0.0,94,0.00,,---,0.20,VWS V14.01,2013-08-03 23:29:00,
2013-08-03 17:32:00,63.9,62.1,25.25,ESE,107,3.1,3.6,94,0.00,,---,0.20,VWS V14.01,2013-08-03 23:32:00,
2013-08-03 17:34:00,63.9,62.1,25.25,East,93,2.2,4.0,94,0.00,,---,0.20,VWS V14.01,2013-08-03 23:34:00,
2013-08-03 17:35:00,63.9,62.1,25.25,East,93,2.2,2.2,94,0.00,,---,0.20,VWS V14.01,2013-08-03 23:35:00,
2013-08-03 17:37:00,63.9,62.1,25.25,East,96,3.6,3.6,94,0.00,,---,0.20,VWS V14.01,2013-08-03 23:37:00,
2013-08-03 17:38:00,63.9,62.1,25.25,ESE,120,3.1,3.6,94,0.00,,---,0.20,VWS V14.01,2013-08-03 23:38:00,
2013-08-03 17:40:00,63.9,62.1,25.25,ENE,60,4.9,4.9,94,0.00,,---,0.20,VWS V14.01,2013-08-03 23:40:00,
2013-08-03 17:41:00,63.9,62.1,25.25,East,94,2.7,4.9,94,0.00,,---,0.20,VWS V14.01,2013-08-03 23:41:00,
2013-08-03 17:42:00,63.9,62.1,25.25,East,94,3.1,3.1,94,0.00,,---,0.20,VWS V14.01,2013-08-03 23:42:00,
2013-08-03 17:43:00,63.9,62.1,25.25,East,94,3.1,3.1,94,0.00,,---,0.20,VWS V14.01,2013-08-03 23:43:00,
2013-08-03 17:45:00,63.9,62.1,25.25,SE,124,3.1,4.0,94,0.00,,---,0.20,VWS V14.01,2013-08-03 23:45:00,
2013-08-03 17:47:00,63.9,62.4,25.25,NNE,25,4.9,4.9,95,0.00,,---,0.20,VWS V14.01,2013-08-03 23:47:00,
2013-08-03 17:49:00,63.9,62.4,25.25,ESE,103,2.2,2.7,95,0.00,,---,0.20,VWS V14.01,2013-08-03 23:49:00,
2013-08-03 17:50:00,63.7,62.2,25.25,ESE,103,2.2,2.2,95,0.00,,---,0.20,VWS V14.01,2013-08-03 23:50:00,
2013-08-03 17:55:00,63.7,62.2,25.25,SE,134,3.6,3.6,95,0.00,,---,0.20,VWS V14.01,2013-08-03 23:55:00,
2013-08-03 17:56:00,63.7,62.5,25.25,SE,134,3.6,3.6,96,0.00,,---,0.20,VWS V14.01,2013-08-03 23:56:00,
2013-08-03 17:58:00,63.7,62.5,25.25,NE,55,4.9,5.4,96,0.00,,---,0.20,VWS V14.01,2013-08-03 23:58:00,
2013-08-03 18:03:00,63.7,62.5,25.25,NE,40,2.7,2.7,96,0.00,,---,0.20,VWS V14.01,2013-08-04 00:03:00,
2013-08-03 18:04:00,63.5,62.6,25.25,ESE,120,0.0,2.7,97,0.00,,---,0.20,VWS V14.01,2013-08-04 00:04:00,
2013-08-03 18:06:00,63.5,62.6,25.25,NE,55,7.2,7.2,97,0.00,,---,0.20,VWS V14.01,2013-08-04 00:06:00,
2013-08-03 18:09:00,63.5,62.6,25.25,SSE,158,6.3,6.3,97,0.00,,---,0.20,VWS V14.01,2013-08-04 00:09:00,
2013-08-03 18:10:00,63.5,62.9,25.25,NNE,18,2.7,6.3,98,0.00,,---,0.20,VWS V14.01,2013-08-04 00:10:00,
2013-08-03 18:14:00,63.5,62.9,25.25,ESE,113,2.2,2.2,98,0.00,,---,0.20,VWS V14.01,2013-08-04 00:14:00,
2013-08-03 18:15:00,63.5,62.9,25.25,ESE,113,2.2,2.2,98,0.00,,---,0.20,VWS V14.01,2013-08-04 00:15:00,
2013-08-03 18:20:00,63.3,62.8,25.25,NE,56,0.0,3.1,98,0.00,,---,0.20,VWS V14.01,2013-08-04 00:20:00,
2013-08-03 18:21:00,63.3,62.8,25.25,NE,56,0.0,0.0,98,0.00,,---,0.20,VWS V14.01,2013-08-04 00:21:00,
2013-08-03 18:22:00,63.3,62.8,25.25,NE,56,0.0,0.0,98,0.00,,---,0.20,VWS V14.01,2013-08-04 00:22:00,
2013-08-03 18:23:00,63.3,62.8,25.25,SE,135,0.0,0.0,98,0.00,,---,0.20,VWS V14.01,2013-08-04 00:23:00,
2013-08-03 18:27:00,63.3,62.8,25.25,NNE,31,0.0,2.7,98,0.00,,---,0.20,VWS V14.01,2013-08-04 00:27:00,
2013-08-03 18:28:00,63.3,62.8,25.25,NNE,31,0.0,0.0,98,0.00,,---,0.20,VWS V14.01,2013-08-04 00:28:00,
2013-08-03 18:29:00,63.3,62.8,25.25,NNE,31,0.0,0.0,98,0.08,,---,0.28,VWS V14.01,2013-08-04 00:29:00,
2013-08-03 18:31:00,63.3,62.8,25.25,NNE,31,0.0,0.0,98,0.08,,---,0.28,VWS V14.01,2013-08-04 00:31:00,
2013-08-03 18:33:00,63.3,62.8,25.25,NNE,31,0.0,0.0,98,0.08,,---,0.28,VWS V14.01,2013-08-04 00:33:00,
2013-08-03 18:34:00,63.3,62.8,25.25,NNE,31,0.0,0.0,98,0.08,,---,0.28,VWS V14.01,2013-08-04 00:34:00,
2013-08-03 18:35:00,63.3,62.8,25.25,NNE,31,0.0,0.0,98,0.08,,---,0.28,VWS V14.01,2013-08-04 00:35:00,
2013-08-03 18:36:00,63.3,62.8,25.25,NNE,31,0.0,0.0,98,0.08,,---,0.28,VWS V14.01,2013-08-04 00:36:00,
2013-08-03 18:37:00,63.3,62.8,25.25,NNE,31,0.0,0.0,98,0.08,,---,0.28,VWS V14.01,2013-08-04 00:37:00,
2013-08-03 18:40:00,63.3,62.8,25.25,SSW,197,0.0,0.0,98,0.08,,---,0.28,VWS V14.01,2013-08-04 00:40:00,
2013-08-03 18:42:00,63.3,62.8,25.25,SSW,197,0.0,0.0,98,0.08,,---,0.28,VWS V14.01,2013-08-04 00:42:00,
2013-08-03 18:44:00,63.1,62.6,25.25,SSW,197,0.0,2.2,98,0.08,,---,0.28,VWS V14.01,2013-08-04 00:44:00,
2013-08-03 18:47:00,63.1,62.6,25.25,South,182,2.2,2.2,98,0.08,,---,0.28,VWS V14.01,2013-08-04 00:47:00,
2013-08-03 18:49:00,63.1,62.6,25.25,South,182,2.2,2.2,98,0.08,,---,0.28,VWS V14.01,2013-08-04 00:49:00,
2013-08-03 18:53:00,63.1,62.6,25.25,WSW,257,0.0,0.0,98,0.08,,---,0.28,VWS V14.01,2013-08-04 00:53:00,
2013-08-03 18:54:00,63.1,62.6,25.25,WSW,257,0.0,0.0,98,0.08,,---,0.28,VWS V14.01,2013-08-04 00:54:00,
2013-08-03 18:55:00,63.1,62.6,25.25,WSW,257,2.7,2.7,98,0.08,,---,0.28,VWS V14.01,2013-08-04 00:55:00,
2013-08-03 18:57:00,63.1,62.6,25.25,WSW,257,2.7,2.7,98,0.08,,---,0.28,VWS V14.01,2013-08-04 00:57:00,
2013-08-03 19:00:00,63.1,62.6,25.25,East,101,3.1,3.1,98,0.08,,---,0.28,VWS V14.01,2013-08-04 01:00:00,
2013-08-03 19:01:00,63.1,62.6,25.25,East,80,3.6,3.6,98,0.08,,---,0.28,VWS V14.01,2013-08-04 01:01:00,
2013-08-03 19:02:00,63.3,62.8,25.28,ESE,117,3.6,3.6,98,0.08,,---,0.28,VWS V14.01,2013-08-04 01:02:00,
2013-08-03 19:05:00,63.3,62.8,25.28,SE,134,3.6,3.6,98,0.08,,---,0.28,VWS V14.01,2013-08-04 01:05:00,
2013-08-03 19:06:00,63.3,62.8,25.28,SE,134,3.6,3.6,98,0.08,,---,0.28,VWS V14.01,2013-08-04 01:06:00,
2013-08-03 19:08:00,63.5,62.9,25.28,SE,134,3.6,3.6,98,0.08,,---,0.28,VWS V14.01,2013-08-04 01:08:00,
2013-08-03 19:11:00,63.5,62.9,25.28,SE,141,7.6,7.6,98,0.08,,---,0.28,VWS V14.01,2013-08-04 01:11:00,
2013-08-03 19:12:00,63.5,62.9,25.28,SE,141,7.6,7.6,98,0.08,,---,0.28,VWS V14.01,2013-08-04 01:12:00,
2013-08-03 19:13:00,63.5,62.9,25.28,NNE,24,4.0,7.6,98,0.08,,---,0.28,VWS V14.01,2013-08-04 01:13:00,
2013-08-03 19:15:00,63.5,62.3,25.28,SE,145,5.8,5.8,96,0.08,,---,0.28,VWS V14.01,2013-08-04 01:15:00,
2013-08-03 19:17:00,63.5,62.0,25.28,East,89,5.8,6.3,95,0.08,,---,0.28,VWS V14.01,2013-08-04 01:17:00,
2013-08-03 19:20:00,63.7,61.6,25.28,East,93,2.7,6.3,93,0.08,,---,0.28,VWS V14.01,2013-08-04 01:20:00,
2013-08-03 19:21:00,63.7,61.6,25.28,ESE,102,3.6,3.6,93,0.08,,---,0.28,VWS V14.01,2013-08-04 01:21:00,
2013-08-03 19:23:00,63.7,61.6,25.28,ESE,102,3.6,3.6,93,0.08,,---,0.28,VWS V14.01,2013-08-04 01:23:00,
2013-08-03 19:24:00,63.9,61.5,25.28,ESE,118,2.7,3.6,92,0.08,,---,0.28,VWS V14.01,2013-08-04 01:24:00,
2013-08-03 19:26:00,63.9,61.2,25.28,ESE,118,2.7,2.7,91,0.08,,---,0.28,VWS V14.01,2013-08-04 01:26:00,
2013-08-03 19:27:00,63.9,61.2,25.28,SSE,147,2.7,2.7,91,0.08,,---,0.28,VWS V14.01,2013-08-04 01:27:00,
2013-08-03 19:28:00,63.9,61.2,25.28,SSE,147,2.2,2.7,91,0.08,,---,0.28,VWS V14.01,2013-08-04 01:28:00,
2013-08-03 19:30:00,63.9,60.9,25.28,SSE,148,0.0,3.1,90,0.00,,---,0.28,VWS V14.01,2013-08-04 01:30:00,
2013-08-03 19:33:00,63.9,60.9,25.28,SSE,148,2.2,2.7,90,0.00,,---,0.28,VWS V14.01,2013-08-04 01:33:00,
2013-08-03 19:35:00,63.7,60.7,25.28,SSE,148,2.7,2.7,90,0.00,,---,0.28,VWS V14.01,2013-08-04 01:35:00,
2013-08-03 19:39:00,63.5,60.5,25.28,SSE,148,2.7,2.7,90,0.00,,---,0.28,VWS V14.01,2013-08-04 01:39:00,
2013-08-03 19:40:00,63.5,60.5,25.28,SE,143,2.7,2.7,90,0.00,,---,0.28,VWS V14.01,2013-08-04 01:40:00,
2013-08-03 19:41:00,63.5,60.5,25.28,SE,139,2.7,2.7,90,0.00,,---,0.28,VWS V14.01,2013-08-04 01:41:00,
2013-08-03 19:42:00,63.5,60.5,25.28,SE,139,2.7,2.7,90,0.00,,---,0.28,VWS V14.01,2013-08-04 01:42:00,
2013-08-03 19:44:00,63.3,60.3,25.28,ENE,58,5.8,5.8,90,0.00,,---,0.28,VWS V14.01,2013-08-04 01:44:00,
2013-08-03 19:45:00,63.3,60.3,25.28,SE,129,6.3,6.3,90,0.00,,---,0.28,VWS V14.01,2013-08-04 01:45:00,
2013-08-03 19:46:00,63.5,60.5,25.28,SSE,151,6.3,6.3,90,0.00,,---,0.28,VWS V14.01,2013-08-04 01:46:00,
2013-08-03 19:47:00,63.5,60.5,25.28,SSE,154,5.8,6.3,90,0.00,,---,0.28,VWS V14.01,2013-08-04 01:47:00,
2013-08-03 19:51:00,63.9,60.9,25.31,ESE,114,3.1,3.6,90,0.00,,---,0.28,VWS V14.01,2013-08-04 01:51:00,
2013-08-03 19:53:00,63.9,60.9,25.31,ESE,113,3.6,3.6,90,0.00,,---,0.28,VWS V14.01,2013-08-04 01:53:00,
2013-08-03 19:55:00,63.9,60.6,25.31,ESE,113,3.6,3.6,89,0.00,,---,0.28,VWS V14.01,2013-08-04 01:55:00,
2013-08-03 19:57:00,64.0,60.4,25.31,ESE,123,8.3,8.3,88,0.00,,---,0.28,VWS V14.01,2013-08-04 01:57:00,
2013-08-03 19:58:00,64.0,60.4,25.31,SE,137,6.3,8.3,88,0.00,,---,0.28,VWS V14.01,2013-08-04 01:58:00,
2013-08-03 19:59:00,64.0,60.4,25.31,SE,137,6.3,6.3,88,0.00,,---,0.28,VWS V14.01,2013-08-04 01:59:00,
2013-08-03 20:00:00,64.0,60.4,25.31,SE,126,3.6,6.3,88,0.00,,---,0.28,VWS V14.01,2013-08-04 02:00:00,
2013-08-03 20:01:00,64.0,60.4,25.31,SE,125,2.2,3.6,88,0.00,,---,0.28,VWS V14.01,2013-08-04 02:01:00,
2013-08-03 20:02:00,64.0,60.4,25.31,SE,125,2.2,2.2,88,0.00,,---,0.28,VWS V14.01,2013-08-04 02:02:00,
2013-08-03 20:06:00,64.2,60.0,25.31,ESE,120,2.7,4.0,86,0.00,,---,0.28,VWS V14.01,2013-08-04 02:06:00,
2013-08-03 20:07:00,64.2,59.6,25.31,SE,142,3.1,3.1,85,0.00,,---,0.28,VWS V14.01,2013-08-04 02:07:00,
2013-08-03 20:08:00,64.2,59.6,25.31,ESE,113,5.4,5.4,85,0.00,,---,0.28,VWS V14.01,2013-08-04 02:08:00,
2013-08-03 20:09:00,64.4,59.8,25.31,SE,143,4.0,5.4,85,0.00,,---,0.28,VWS V14.01,2013-08-04 02:09:00,
2013-08-03 20:11:00,64.4,59.8,25.31,ESE,122,0.0,0.0,85,0.00,,---,0.28,VWS V14.01,2013-08-04 02:11:00,
2013-08-03 20:12:00,64.4,59.5,25.31,ESE,122,0.0,0.0,84,0.00,,---,0.28,VWS V14.01,2013-08-04 02:12:00,
2013-08-03 20:16:00,64.4,59.1,25.31,ESE,110,2.2,2.2,83,0.00,,---,0.28,VWS V14.01,2013-08-04 02:16:00,
2013-08-03 20:17:00,64.4,59.1,25.31,East,96,3.1,3.1,83,0.00,,---,0.28,VWS V14.01,2013-08-04 02:17:00,
2013-08-03 20:20:00,64.4,59.1,25.31,SE,127,2.7,2.7,83,0.00,,---,0.28,VWS V14.01,2013-08-04 02:20:00,
2013-08-03 20:21:00,64.4,59.1,25.31,ESE,123,3.1,3.1,83,0.00,,---,0.28,VWS V14.01,2013-08-04 02:21:00,
2013-08-03 20:22:00,64.4,59.1,25.31,ESE,123,2.2,3.1,83,0.00,,---,0.28,VWS V14.01,2013-08-04 02:22:00,
2013-08-03 20:25:00,64.4,59.1,25.31,SE,132,3.1,5.8,83,0.00,,---,0.28,VWS V14.01,2013-08-04 02:25:00,
2013-08-03 20:27:00,64.4,59.1,25.31,South,173,2.7,3.1,83,0.00,,---,0.28,VWS V14.01,2013-08-04 02:27:00,
2013-08-03 20:28:00,64.4,59.1,25.31,ESE,102,5.8,5.8,83,0.00,,---,0.28,VWS V14.01,2013-08-04 02:28:00,
2013-08-03 20:29:00,64.4,58.5,25.31,SSE,165,3.1,6.3,81,0.00,,---,0.28,VWS V14.01,2013-08-04 02:29:00,
2013-08-03 20:32:00,64.6,58.6,25.31,SSE,163,2.2,3.6,81,0.00,,---,0.28,VWS V14.01,2013-08-04 02:32:00,
2013-08-03 20:35:00,64.6,58.6,25.28,SSE,163,2.2,2.2,81,0.00,,---,0.28,VWS V14.01,2013-08-04 02:35:00,
2013-08-03 20:36:00,64.6,58.6,25.28,SSE,163,2.2,2.2,81,0.00,,---,0.28,VWS V14.01,2013-08-04 02:36:00,
2013-08-03 20:37:00,64.6,58.3,25.28,SSE,149,5.4,6.7,80,0.00,,---,0.28,VWS V14.01,2013-08-04 02:37:00,
2013-08-03 20:39:00,64.6,57.6,25.28,SSE,149,5.4,5.4,78,0.00,,---,0.28,VWS V14.01,2013-08-04 02:39:00,
2013-08-03 20:40:00,64.8,57.4,25.28,SW,215,5.8,5.8,77,0.00,,---,0.28,VWS V14.01,2013-08-04 02:40:00,
2013-08-03 20:41:00,64.9,57.2,25.28,SW,215,5.8,5.8,76,0.00,,---,0.28,VWS V14.01,2013-08-04 02:41:00,
2013-08-03 20:44:00,65.3,56.8,25.28,NNE,23,2.7,5.4,74,0.00,,---,0.28,VWS V14.01,2013-08-04 02:44:00,
2013-08-03 20:46:00,65.3,56.8,25.28,NNE,15,3.1,3.1,74,0.00,,---,0.28,VWS V14.01,2013-08-04 02:46:00,
2013-08-03 20:49:00,65.5,56.6,25.28,SSE,164,4.0,5.4,73,0.00,,---,0.28,VWS V14.01,2013-08-04 02:49:00,
2013-08-03 20:51:00,65.5,56.2,25.28,SE,130,12.8,12.8,72,0.00,,---,0.28,VWS V14.01,2013-08-04 02:51:00,
2013-08-03 20:52:00,65.7,55.6,25.28,SE,128,10.1,12.8,70,0.00,,---,0.28,VWS V14.01,2013-08-04 02:52:00,
2013-08-03 20:53:00,65.7,55.6,25.28,South,188,3.6,10.1,70,0.00,,---,0.28,VWS V14.01,2013-08-04 02:53:00,
2013-08-03 20:56:00,65.7,55.6,25.31,East,99,5.4,6.3,70,0.00,,---,0.28,VWS V14.01,2013-08-04 02:56:00,
2013-08-03 20:57:00,65.7,55.6,25.31,East,91,0.0,5.4,70,0.00,,---,0.28,VWS V14.01,2013-08-04 02:57:00,
2013-08-03 20:58:00,65.7,55.6,25.31,ESE,122,3.1,3.1,70,0.00,,---,0.28,VWS V14.01,2013-08-04 02:58:00,
2013-08-03 21:01:00,65.5,55.8,25.31,ESE,106,2.2,2.2,71,0.00,,---,0.28,VWS V14.01,2013-08-04 03:01:00,
2013-08-03 21:05:00,65.5,55.8,25.31,East,98,5.4,5.4,71,0.00,,---,0.28,VWS V14.01,2013-08-04 03:05:00,
2013-08-03 21:07:00,65.5,55.5,25.31,ESE,113,2.7,2.7,70,0.00,,---,0.28,VWS V14.01,2013-08-04 03:07:00,
2013-08-03 21:08:00,65.5,55.5,25.34,ESE,113,2.7,2.7,70,0.00,,---,0.28,VWS V14.01,2013-08-04 03:08:00,
2013-08-03 21:12:00,65.5,55.5,25.34,SSW,205,3.1,3.1,70,0.00,,---,0.28,VWS V14.01,2013-08-04 03:12:00,
2013-08-03 21:13:00,65.5,56.2,25.34,SSE,155,2.7,3.1,72,0.00,,---,0.28,VWS V14.01,2013-08-04 03:13:00,
2013-08-03 21:17:00,65.3,56.4,25.34,East,80,2.2,3.6,73,0.00,,---,0.28,VWS V14.01,2013-08-04 03:17:00,
2013-08-03 21:19:00,65.1,57.0,25.34,East,99,5.4,5.4,75,0.00,,---,0.28,VWS V14.01,2013-08-04 03:19:00,
2013-08-03 21:20:00,65.1,57.0,25.34,ESE,114,3.1,5.4,75,0.00,,---,0.28,VWS V14.01,2013-08-04 03:20:00,
2013-08-03 21:22:00,65.1,58.1,25.34,East,84,5.8,5.8,78,0.00,,---,0.28,VWS V14.01,2013-08-04 03:22:00,
2013-08-03 21:23:00,65.1,58.5,25.34,ESE,112,8.1,8.1,79,0.00,,---,0.28,VWS V14.01,2013-08-04 03:23:00,
2013-08-03 21:25:00,64.9,58.6,25.34,ESE,112,8.1,8.1,80,0.00,,---,0.28,VWS V14.01,2013-08-04 03:25:00,
2013-08-03 21:27:00,64.8,58.8,25.34,ENE,69,2.7,3.1,81,0.00,,---,0.28,VWS V14.01,2013-08-04 03:27:00,
2013-08-03 21:28:00,64.8,58.8,25.34,ENE,69,2.7,2.7,81,0.00,,---,0.28,VWS V14.01,2013-08-04 03:28:00,
2013-08-03 21:31:00,64.6,59.0,25.34,East,83,4.9,4.9,82,0.00,,---,0.28,VWS V14.01,2013-08-04 03:31:00,
2013-08-03 21:32:00,64.6,59.0,25.34,East,83,4.9,4.9,82,0.00,,---,0.28,VWS V14.01,2013-08-04 03:32:00,
2013-08-03 21:36:00,64.4,59.1,25.34,NE,39,5.4,5.4,83,0.00,,---,0.28,VWS V14.01,2013-08-04 03:36:00,
2013-08-03 21:39:00,64.2,60.6,25.34,SE,128,3.6,3.6,88,0.04,,---,0.31,VWS V14.01,2013-08-04 03:39:00,
2013-08-03 21:41:00,64.2,60.6,25.34,ENE,76,4.9,4.9,88,0.04,,---,0.31,VWS V14.01,2013-08-04 03:41:00,
2013-08-03 21:42:00,64.0,60.7,25.34,ESE,114,4.0,4.9,89,0.04,,---,0.31,VWS V14.01,2013-08-04 03:42:00,
2013-08-03 21:46:00,63.9,60.6,25.34,SE,146,4.0,4.0,89,0.04,,---,0.31,VWS V14.01,2013-08-04 03:46:00,
2013-08-03 21:48:00,63.9,60.9,25.34,SE,132,3.6,3.6,90,0.04,,---,0.31,VWS V14.01,2013-08-04 03:48:00,
2013-08-03 21:49:00,63.9,60.9,25.34,ESE,106,5.8,5.8,90,0.04,,---,0.31,VWS V14.01,2013-08-04 03:49:00,
2013-08-03 21:53:00,63.7,61.0,25.34,SE,140,4.9,5.8,91,0.04,,---,0.31,VWS V14.01,2013-08-04 03:53:00,
2013-08-03 21:54:00,63.7,61.0,25.34,SE,140,4.9,4.9,91,0.04,,---,0.31,VWS V14.01,2013-08-04 03:54:00,
2013-08-03 21:56:00,63.7,61.0,25.34,SE,146,4.0,5.8,91,0.04,,---,0.31,VWS V14.01,2013-08-04 03:56:00,
2013-08-03 22:00:00,63.7,61.0,25.34,SE,127,3.6,5.8,91,0.04,,---,0.31,VWS V14.01,2013-08-04 04:00:00,
2013-08-03 22:01:00,63.7,61.0,25.34,SE,127,3.6,3.6,91,0.04,,---,0.31,VWS V14.01,2013-08-04 04:01:00,
2013-08-03 22:02:00,63.5,60.8,25.34,SE,142,4.0,4.0,91,0.04,,---,0.31,VWS V14.01,2013-08-04 04:02:00,
2013-08-03 22:03:00,63.5,60.8,25.34,SE,134,3.6,4.9,91,0.04,,---,0.31,VWS V14.01,2013-08-04 04:03:00,
2013-08-03 22:06:00,63.5,60.8,25.34,SE,136,2.7,3.6,91,0.04,,---,0.31,VWS V14.01,2013-08-04 04:06:00,
2013-08-03 22:08:00,63.5,60.8,25.34,SE,145,4.0,4.0,91,0.04,,---,0.31,VWS V14.01,2013-08-04 04:08:00,
2013-08-03 22:09:00,63.5,60.8,25.34,SE,128,3.1,4.0,91,0.04,,---,0.31,VWS V14.01,2013-08-04 04:09:00,
2013-08-03 22:11:00,63.5,60.8,25.34,SE,128,3.1,3.1,91,0.04,,---,0.31,VWS V14.01,2013-08-04 04:11:00,
2013-08-03 22:13:00,63.5,60.8,25.34,SSE,158,3.1,3.1,91,0.04,,---,0.31,VWS V14.01,2013-08-04 04:13:00,
2013-08-03 22:14:00,63.5,60.8,25.34,SSE,158,3.1,3.1,91,0.04,,---,0.31,VWS V14.01,2013-08-04 04:14:00,
2013-08-03 22:16:00,63.5,60.8,25.34,SE,142,3.6,3.6,91,0.04,,---,0.31,VWS V14.01,2013-08-04 04:16:00,
2013-08-03 22:19:00,63.5,60.5,25.31,SE,130,2.7,2.7,90,0.04,,---,0.31,VWS V14.01,2013-08-04 04:19:00,
2013-08-03 22:20:00,63.5,60.5,25.31,SE,125,2.7,4.0,90,0.04,,---,0.31,VWS V14.01,2013-08-04 04:20:00,
2013-08-03 22:21:00,63.5,60.5,25.31,SE,125,2.7,2.7,90,0.04,,---,0.31,VWS V14.01,2013-08-04 04:21:00,
2013-08-03 22:22:00,63.3,60.3,25.31,SE,125,2.7,2.7,90,0.04,,---,0.31,VWS V14.01,2013-08-04 04:22:00,
2013-08-03 22:26:00,63.3,60.0,25.31,ESE,111,3.1,3.1,89,0.04,,---,0.31,VWS V14.01,2013-08-04 04:26:00,
2013-08-03 22:28:00,63.3,60.0,25.31,SE,137,4.0,4.0,89,0.04,,---,0.31,VWS V14.01,2013-08-04 04:28:00,
2013-08-03 22:29:00,63.3,60.0,25.31,ESE,115,5.4,5.4,89,0.04,,---,0.31,VWS V14.01,2013-08-04 04:29:00,
2013-08-03 22:30:00,63.3,60.0,25.31,ESE,115,5.4,5.4,89,0.04,,---,0.31,VWS V14.01,2013-08-04 04:30:00,
2013-08-03 22:34:00,63.5,60.2,25.31,SE,144,5.8,5.8,89,0.04,,---,0.31,VWS V14.01,2013-08-04 04:34:00,
2013-08-03 22:35:00,63.5,60.2,25.31,SE,143,4.0,5.8,89,0.04,,---,0.31,VWS V14.01,2013-08-04 04:35:00,
2013-08-03 22:37:00,63.5,59.9,25.31,ESE,122,5.8,5.8,88,0.04,,---,0.31,VWS V14.01,2013-08-04 04:37:00,
2013-08-03 22:39:00,63.5,59.9,25.31,ESE,111,3.1,5.8,88,0.00,,---,0.31,VWS V14.01,2013-08-04 04:39:00,
2013-08-03 22:41:00,63.5,59.9,25.31,SSE,152,5.4,5.4,88,0.00,,---,0.31,VWS V14.01,2013-08-04 04:41:00,
2013-08-03 22:42:00,63.5,59.2,25.31,ENE,72,3.6,5.4,86,0.00,,---,0.31,VWS V14.01,2013-08-04 04:42:00,
2013-08-03 22:43:00,63.7,59.4,25.31,ENE,72,3.6,3.6,86,0.00,,---,0.31,VWS V14.01,2013-08-04 04:43:00,
2013-08-03 22:46:00,63.7,59.4,25.31,ESE,106,4.0,4.0,86,0.00,,---,0.31,VWS V14.01,2013-08-04 04:46:00,
2013-08-03 22:51:00,63.5,58.9,25.31,North,11,2.2,5.8,85,0.00,,---,0.31,VWS V14.01,2013-08-04 04:51:00,
2013-08-03 22:52:00,63.5,59.2,25.31,SW,231,4.0,4.0,86,0.00,,---,0.31,VWS V14.01,2013-08-04 04:52:00,
2013-08-03 22:53:00,63.5,59.2,25.31,ESE,109,8.1,8.1,86,0.00,,---,0.31,VWS V14.01,2013-08-04 04:53:00,
2013-08-03 22:55:00,63.5,59.2,25.31,SE,137,8.3,8.3,86,0.00,,---,0.31,VWS V14.01,2013-08-04 04:55:00,
2013-08-03 22:56:00,63.5,59.2,25.31,SE,137,8.3,8.3,86,0.00,,---,0.31,VWS V14.01,2013-08-04 04:56:00,
2013-08-03 22:59:00,63.7,59.7,25.31,SE,144,3.6,3.6,87,0.00,,---,0.31,VWS V14.01,2013-08-04 04:59:00,
2013-08-03 23:01:00,63.5,59.2,25.31,SSW,203,2.7,3.6,86,0.00,,---,0.31,VWS V14.01,2013-08-04 05:01:00,
2013-08-03 23:02:00,63.5,59.6,25.31,ENE,57,3.1,3.1,87,0.00,,---,0.31,VWS V14.01,2013-08-04 05:02:00,
2013-08-03 23:03:00,63.5,59.6,25.31,ENE,72,0.0,3.1,87,0.00,,---,0.31,VWS V14.01,2013-08-04 05:03:00,
2013-08-03 23:08:00,63.5,59.6,25.31,SE,128,3.1,3.6,87,0.00,,---,0.31,VWS V14.01,2013-08-04 05:08:00,
2013-08-03 23:09:00,63.5,59.6,25.31,SE,128,3.1,3.1,87,0.00,,---,0.31,VWS V14.01,2013-08-04 05:09:00,
2013-08-03 23:10:00,63.5,59.6,25.31,SSE,149,5.4,5.4,87,0.00,,---,0.31,VWS V14.01,2013-08-04 05:10:00,
2013-08-03 23:13:00,63.5,59.6,25.31,East,96,0.0,7.6,87,0.00,,---,0.31,VWS V14.01,2013-08-04 05:13:00,
2013-08-03 23:14:00,63.5,59.6,25.31,ENE,62,2.7,2.7,87,0.00,,---,0.31,VWS V14.01,2013-08-04 05:14:00,
2013-08-03 23:16:00,63.5,59.6,25.31,SE,127,3.6,3.6,87,0.00,,---,0.31,VWS V14.01,2013-08-04 05:16:00,
2013-08-03 23:18:00,63.5,59.6,25.31,SSE,159,2.7,2.7,87,0.00,,---,0.31,VWS V14.01,2013-08-04 05:18:00,
2013-08-03 23:21:00,63.5,59.6,25.31,ESE,106,2.2,3.6,87,0.00,,---,0.31,VWS V14.01,2013-08-04 05:21:00,
2013-08-03 23:23:00,63.5,59.2,25.31,ESE,109,7.2,7.2,86,0.00,,---,0.31,VWS V14.01,2013-08-04 05:23:00,
2013-08-03 23:25:00,63.7,58.8,25.31,ESE,116,4.0,6.3,84,0.00,,---,0.31,VWS V14.01,2013-08-04 05:25:00,
2013-08-03 23:28:00,63.7,58.8,25.31,East,79,3.1,3.1,84,0.00,,---,0.31,VWS V14.01,2013-08-04 05:28:00,
2013-08-03 23:32:00,63.7,58.4,25.31,East,79,4.0,5.8,83,0.00,,---,0.31,VWS V14.01,2013-08-04 05:32:00,
2013-08-03 23:33:00,63.7,58.4,25.31,SE,124,4.0,4.0,83,0.00,,---,0.31,VWS V14.01,2013-08-04 05:33:00,
2013-08-03 23:34:00,63.9,58.6,25.31,ESE,110,5.8,5.8,83,0.00,,---,0.31,VWS V14.01,2013-08-04 05:34:00,
2013-08-03 23:36:00,63.9,58.6,25.31,NNE,28,7.6,7.6,83,0.00,,---,0.31,VWS V14.01,2013-08-04 05:36:00,
2013-08-03 23:38:00,63.9,58.6,25.31,ESE,109,6.3,6.3,83,0.00,,---,0.31,VWS V14.01,2013-08-04 05:38:00,
2013-08-03 23:39:00,63.9,58.6,25.31,ESE,119,3.6,6.3,83,0.00,,---,0.31,VWS V14.01,2013-08-04 05:39:00,
2013-08-03 23:42:00,63.9,58.6,25.31,SE,145,3.6,3.6,83,0.00,,---,0.31,VWS V14.01,2013-08-04 05:42:00,
2013-08-03 23:44:00,63.5,58.6,25.31,SE,145,3.6,3.6,84,0.00,,---,0.31,VWS V14.01,2013-08-04 05:44:00,
2013-08-03 23:46:00,63.5,58.9,25.31,NE,50,2.7,5.8,85,0.00,,---,0.31,VWS V14.01,2013-08-04 05:46:00,
2013-08-03 23:47:00,63.5,58.9,25.31,ESE,111,3.1,3.1,85,0.00,,---,0.31,VWS V14.01,2013-08-04 05:47:00,
2013-08-03 23:51:00,63.3,59.1,25.28,SE,134,3.1,7.2,86,0.00,,---,0.31,VWS V14.01,2013-08-04 05:51:00,
2013-08-03 23:52:00,63.3,59.4,25.28,ESE,121,5.8,5.8,87,0.00,,---,0.31,VWS V14.01,2013-08-04 05:52:00,
2013-08-03 23:55:00,63.3,59.7,25.28,SSE,150,8.3,8.3,88,0.00,,---,0.31,VWS V14.01,2013-08-04 05:55:00,
2013-08-03 23:57:00,63.3,59.7,25.28,East,94,2.2,6.3,88,0.00,,---,0.31,VWS V14.01,2013-08-04 05:57:00,
2013-08-03 23:58:00,63.1,59.8,25.28,ESE,122,4.9,4.9,89,0.00,,---,0.31,VWS V14.01,2013-08-04 05:58:00,
2013-08-03 23:59:00,63.1,59.8,25.28,ESE,120,4.0,4.9,89,0.00,,---,0.31,VWS V14.01,2013-08-04 05:59:00,